Time,TemperatureF,DewpointF,PressureIn,WindDirection,WindDirectionDegrees,WindSpeedMPH,WindSpeedGustMPH,Humidity,HourlyPrecipIn,Conditions,Clouds,dailyrainin,SoftwareType,DateUTC
2013-01-09 00:00:00,44.8,35.6,30.11,South,183,3.0,12.0,70,0.00,,,0.00,VWS V14.01,2013-01-09 06:00:00,
2013-01-09 00:01:00,44.8,35.6,30.11,SSE,148,3.0,11.0,70,0.00,,OVC070,0.00,VWS V14.01,2013-01-09 06:01:00,
2013-01-09 00:02:00,44.8,35.6,30.11,South,180,4.0,11.0,70,0.00,,OVC070,0.00,VWS V14.01,2013-01-09 06:02:00,
2013-01-09 00:04:00,44.8,35.6,30.11,South,188,4.0,11.0,70,0.00,,OVC070,0.00,VWS V14.01,2013-01-09 06:04:00,
2013-01-09 00:06:00,44.8,35.6,30.11,South,175,6.0,11.0,70,0.00,,OVC070,0.00,VWS V14.01,2013-01-09 06:06:00,
2013-01-09 00:07:00,44.8,35.6,30.11,South,173,3.0,11.0,70,0.00,,OVC070,0.00,VWS V14.01,2013-01-09 06:07:00,
2013-01-09 00:10:00,44.7,35.5,30.11,South,191,10.0,11.0,70,0.00,,OVC070,0.00,VWS V14.01,2013-01-09 06:10:00,
2013-01-09 00:11:00,44.8,35.6,30.11,South,190,0.0,11.0,70,0.00,,OVC070,0.00,VWS V14.01,2013-01-09 06:11:00,
2013-01-09 00:12:00,44.8,35.6,30.11,SSE,164,5.0,11.0,70,0.00,,OVC070,0.00,VWS V14.01,2013-01-09 06:12:00,
2013-01-09 00:15:00,44.8,35.6,30.11,SSW,211,5.0,11.0,70,0.00,,OVC070,0.00,VWS V14.01,2013-01-09 06:15:00,
2013-01-09 00:16:00,44.8,35.6,30.11,SSW,196,3.0,11.0,70,0.00,,OVC070,0.00,VWS V14.01,2013-01-09 06:16:00,
2013-01-09 00:17:00,44.8,35.6,30.11,South,184,1.0,11.0,70,0.00,,OVC070,0.00,VWS V14.01,2013-01-09 06:17:00,
2013-01-09 00:20:00,44.8,35.6,30.11,SSW,203,6.0,11.0,70,0.00,,OVC070,0.00,VWS V14.01,2013-01-09 06:20:00,
2013-01-09 00:21:00,44.8,35.6,30.11,SSW,196,3.0,11.0,70,0.00,,OVC070,0.00,VWS V14.01,2013-01-09 06:21:00,
2013-01-09 00:22:00,44.8,35.6,30.11,SSW,205,2.0,11.0,70,0.00,,OVC070,0.00,VWS V14.01,2013-01-09 06:22:00,
2013-01-09 00:25:00,44.8,35.6,30.11,South,170,6.0,11.0,70,0.00,,OVC070,0.00,VWS V14.01,2013-01-09 06:25:00,
2013-01-09 00:26:00,44.8,35.6,30.11,SSW,201,4.0,11.0,70,0.00,,OVC070,0.00,VWS V14.01,2013-01-09 06:26:00,
2013-01-09 00:27:00,44.8,35.6,30.11,South,184,6.0,11.0,70,0.00,,OVC070,0.00,VWS V14.01,2013-01-09 06:27:00,
2013-01-09 00:28:00,44.8,35.6,30.11,South,184,3.0,11.0,70,0.00,,OVC070,0.00,VWS V14.01,2013-01-09 06:28:00,
2013-01-09 00:30:00,44.8,35.6,30.12,South,174,3.0,3.0,70,0.00,,OVC070,0.00,VWS V14.01,2013-01-09 06:30:00,
2013-01-09 00:31:00,44.8,35.6,30.12,SSW,202,4.0,8.0,70,0.00,,OVC070,0.00,VWS V14.01,2013-01-09 06:31:00,
2013-01-09 00:32:00,44.8,35.6,30.12,South,180,6.0,8.0,70,0.00,,OVC070,0.00,VWS V14.01,2013-01-09 06:32:00,
2013-01-09 00:33:00,45.0,35.8,30.12,SSW,198,4.0,8.0,70,0.00,,OVC070,0.00,VWS V14.01,2013-01-09 06:33:00,
2013-01-09 00:35:00,45.0,35.8,30.12,SSW,196,5.0,8.0,70,0.00,,OVC070,0.00,VWS V14.01,2013-01-09 06:35:00,
2013-01-09 00:37:00,45.0,35.8,30.12,South,191,3.0,10.0,70,0.00,,OVC070,0.00,VWS V14.01,2013-01-09 06:37:00,
2013-01-09 00:38:00,45.0,35.8,30.12,SSW,200,5.0,10.0,70,0.00,,OVC070,0.00,VWS V14.01,2013-01-09 06:38:00,
2013-01-09 00:40:00,45.0,35.8,30.12,SSW,195,1.0,10.0,70,0.00,,OVC070,0.00,VWS V14.01,2013-01-09 06:40:00,
2013-01-09 00:42:00,45.0,35.8,30.12,SSW,194,2.0,10.0,70,0.00,,OVC070,0.00,VWS V14.01,2013-01-09 06:42:00,
2013-01-09 00:43:00,45.0,35.8,30.12,South,187,2.0,10.0,70,0.00,,OVC070,0.00,VWS V14.01,2013-01-09 06:43:00,
2013-01-09 00:45:00,45.0,35.8,30.12,SSW,200,6.0,10.0,70,0.00,,OVC070,0.00,VWS V14.01,2013-01-09 06:45:00,
2013-01-09 00:47:00,45.0,35.5,30.12,South,175,4.0,10.0,69,0.00,,BKN110,0.00,VWS V14.01,2013-01-09 06:47:00,
2013-01-09 00:49:00,45.0,35.5,30.12,SW,223,0.0,10.0,69,0.00,,BKN110,0.00,VWS V14.01,2013-01-09 06:49:00,
2013-01-09 00:50:00,45.0,35.5,30.12,South,186,4.0,10.0,69,0.00,,BKN110,0.00,VWS V14.01,2013-01-09 06:50:00,
2013-01-09 00:52:00,45.0,35.5,30.12,South,186,0.0,10.0,69,0.00,,BKN110,0.00,VWS V14.01,2013-01-09 06:52:00,
2013-01-09 00:53:00,45.0,35.8,30.12,South,186,0.0,10.0,70,0.00,,BKN110,0.00,VWS V14.01,2013-01-09 06:53:00,
2013-01-09 00:54:00,45.0,35.5,30.12,SW,228,4.0,10.0,69,0.00,,BKN110,0.00,VWS V14.01,2013-01-09 06:54:00,
2013-01-09 00:55:00,45.0,35.8,30.12,South,182,3.0,10.0,70,0.00,,BKN110,0.00,VWS V14.01,2013-01-09 06:55:00,
2013-01-09 00:57:00,45.0,35.5,30.12,South,175,2.0,11.0,69,0.00,,BKN110,0.00,VWS V14.01,2013-01-09 06:57:00,
2013-01-09 00:58:00,45.0,35.5,30.12,South,182,1.0,11.0,69,0.00,,BKN110,0.00,VWS V14.01,2013-01-09 06:58:00,
2013-01-09 00:59:00,45.0,35.5,30.13,SW,234,3.0,11.0,69,0.00,,BKN110,0.00,VWS V14.01,2013-01-09 06:59:00,
2013-01-09 01:00:00,45.0,35.5,30.13,SSW,211,3.0,7.0,69,0.00,,BKN110,0.00,VWS V14.01,2013-01-09 07:00:00,
2013-01-09 01:02:00,45.1,35.5,30.13,South,180,4.0,7.0,69,0.00,,OVC110,0.00,VWS V14.01,2013-01-09 07:02:00,
2013-01-09 01:03:00,45.1,35.5,30.13,SW,219,4.0,10.0,69,0.00,,OVC110,0.00,VWS V14.01,2013-01-09 07:03:00,
2013-01-09 01:04:00,45.1,35.5,30.13,South,188,6.0,11.0,69,0.00,,OVC110,0.00,VWS V14.01,2013-01-09 07:04:00,
2013-01-09 01:05:00,45.1,35.5,30.13,SW,229,4.0,11.0,69,0.00,,OVC110,0.00,VWS V14.01,2013-01-09 07:05:00,
2013-01-09 01:07:00,45.1,35.5,30.13,SSW,200,4.0,11.0,69,0.00,,OVC110,0.00,VWS V14.01,2013-01-09 07:07:00,
2013-01-09 01:08:00,45.1,35.5,30.13,South,183,7.0,11.0,69,0.00,,OVC110,0.00,VWS V14.01,2013-01-09 07:08:00,
2013-01-09 01:09:00,45.1,35.5,30.13,SSW,208,1.0,11.0,69,0.00,,OVC110,0.00,VWS V14.01,2013-01-09 07:09:00,
2013-01-09 01:10:00,45.1,35.5,30.13,SW,221,6.0,11.0,69,0.00,,OVC110,0.00,VWS V14.01,2013-01-09 07:10:00,
2013-01-09 01:12:00,45.1,35.5,30.13,SW,221,5.0,14.0,69,0.00,,OVC110,0.00,VWS V14.01,2013-01-09 07:12:00,
2013-01-09 01:13:00,45.1,35.5,30.13,SSW,207,5.0,14.0,69,0.00,,OVC110,0.00,VWS V14.01,2013-01-09 07:13:00,
2013-01-09 01:14:00,45.1,35.5,30.13,SSW,212,9.0,14.0,69,0.00,,OVC110,0.00,VWS V14.01,2013-01-09 07:14:00,
2013-01-09 01:16:00,45.1,35.5,30.13,South,187,5.0,14.0,69,0.00,,OVC110,0.00,VWS V14.01,2013-01-09 07:16:00,
2013-01-09 01:17:00,45.0,35.5,30.13,SSW,212,5.0,14.0,69,0.00,,OVC110,0.00,VWS V14.01,2013-01-09 07:17:00,
2013-01-09 01:18:00,45.0,35.5,30.13,SW,216,5.0,14.0,69,0.00,,OVC110,0.00,VWS V14.01,2013-01-09 07:18:00,
2013-01-09 01:19:00,45.0,35.5,30.13,SSW,206,5.0,14.0,69,0.00,,OVC110,0.00,VWS V14.01,2013-01-09 07:19:00,
2013-01-09 01:21:00,45.0,35.5,30.13,South,190,8.0,14.0,69,0.00,,OVC110,0.00,VWS V14.01,2013-01-09 07:21:00,
2013-01-09 01:22:00,45.0,35.5,30.13,South,184,3.0,14.0,69,0.00,,OVC110,0.00,VWS V14.01,2013-01-09 07:22:00,
2013-01-09 01:23:00,45.0,35.5,30.13,SSW,202,2.0,14.0,69,0.00,,OVC110,0.00,VWS V14.01,2013-01-09 07:23:00,
2013-01-09 01:25:00,45.0,35.8,30.13,SSW,211,3.0,14.0,70,0.00,,OVC110,0.00,VWS V14.01,2013-01-09 07:25:00,
2013-01-09 01:26:00,45.0,35.8,30.13,SSW,202,3.0,14.0,70,0.00,,OVC110,0.00,VWS V14.01,2013-01-09 07:26:00,
2013-01-09 01:28:00,44.8,35.6,30.13,SSW,206,2.0,14.0,70,0.00,,OVC110,0.00,VWS V14.01,2013-01-09 07:28:00,
2013-01-09 01:30:00,44.8,35.6,30.14,SSW,207,6.0,6.0,70,0.00,,OVC110,0.00,VWS V14.01,2013-01-09 07:30:00,
2013-01-09 01:31:00,44.8,35.6,30.14,SSW,200,5.0,7.0,70,0.00,,OVC110,0.00,VWS V14.01,2013-01-09 07:31:00,
2013-01-09 01:33:00,44.7,35.9,30.14,SSW,206,2.0,9.0,71,0.00,,OVC110,0.00,VWS V14.01,2013-01-09 07:33:00,
2013-01-09 01:35:00,44.7,35.9,30.14,SSW,208,3.0,9.0,71,0.00,,OVC110,0.00,VWS V14.01,2013-01-09 07:35:00,
2013-01-09 01:36:00,44.7,35.9,30.14,SW,235,5.0,9.0,71,0.00,,OVC110,0.00,VWS V14.01,2013-01-09 07:36:00,
2013-01-09 01:38:00,44.5,35.7,30.14,SSW,201,3.0,10.0,71,0.00,,OVC110,0.00,VWS V14.01,2013-01-09 07:38:00,
2013-01-09 01:40:00,44.5,36.0,30.14,South,185,1.0,10.0,72,0.00,,OVC110,0.00,VWS V14.01,2013-01-09 07:40:00,
2013-01-09 01:41:00,44.5,36.0,30.14,SSW,201,6.0,10.0,72,0.00,,OVC110,0.00,VWS V14.01,2013-01-09 07:41:00,
2013-01-09 01:43:00,44.5,36.0,30.14,SSW,211,5.0,10.0,72,0.00,,OVC110,0.00,VWS V14.01,2013-01-09 07:43:00,
2013-01-09 01:44:00,44.5,36.0,30.15,SSW,209,4.0,10.0,72,0.00,,OVC110,0.00,VWS V14.01,2013-01-09 07:44:00,
2013-01-09 01:45:00,44.5,36.0,30.15,South,186,8.0,10.0,72,0.00,,BKN120,0.00,VWS V14.01,2013-01-09 07:45:00,
2013-01-09 01:46:00,44.5,36.0,30.15,South,188,7.0,10.0,72,0.00,,BKN120,0.00,VWS V14.01,2013-01-09 07:46:00,
2013-01-09 01:48:00,44.5,36.0,30.15,SSW,200,4.0,10.0,72,0.00,,BKN120,0.00,VWS V14.01,2013-01-09 07:48:00,
2013-01-09 01:49:00,44.5,36.0,30.15,SSW,209,4.0,10.0,72,0.00,,BKN120,0.00,VWS V14.01,2013-01-09 07:49:00,
2013-01-09 01:50:00,44.5,36.0,30.15,SW,231,3.0,10.0,72,0.00,,BKN120,0.00,VWS V14.01,2013-01-09 07:50:00,
2013-01-09 01:51:00,44.5,36.0,30.15,SSW,192,3.0,10.0,72,0.00,,BKN120,0.00,VWS V14.01,2013-01-09 07:51:00,
2013-01-09 01:53:00,44.5,36.0,30.15,SSW,211,5.0,10.0,72,0.00,,BKN120,0.00,VWS V14.01,2013-01-09 07:53:00,
2013-01-09 01:54:00,44.5,36.0,30.15,SSW,212,1.0,10.0,72,0.00,,BKN120,0.00,VWS V14.01,2013-01-09 07:54:00,
2013-01-09 01:55:00,44.5,36.0,30.15,SW,214,3.0,10.0,72,0.00,,BKN120,0.00,VWS V14.01,2013-01-09 07:55:00,
2013-01-09 01:56:00,44.5,36.0,30.15,SSW,204,6.0,10.0,72,0.00,,BKN120,0.00,VWS V14.01,2013-01-09 07:56:00,
2013-01-09 01:59:00,44.5,36.0,30.15,South,180,4.0,10.0,72,0.00,,BKN120,0.00,VWS V14.01,2013-01-09 07:59:00,
2013-01-09 02:00:00,44.5,36.0,30.15,South,190,4.0,9.0,72,0.00,,OVC090,0.00,VWS V14.01,2013-01-09 08:00:00,
2013-01-09 02:01:00,44.5,36.0,30.15,SSW,200,8.0,9.0,72,0.00,,OVC090,0.00,VWS V14.01,2013-01-09 08:01:00,
2013-01-09 02:04:00,44.4,36.0,30.15,SW,232,2.0,9.0,72,0.00,,OVC090,0.00,VWS V14.01,2013-01-09 08:04:00,
2013-01-09 02:05:00,44.4,36.0,30.15,WSW,244,2.0,9.0,72,0.00,,OVC090,0.00,VWS V14.01,2013-01-09 08:05:00,
2013-01-09 02:06:00,44.4,36.0,30.15,South,188,3.0,9.0,72,0.00,,OVC090,0.00,VWS V14.01,2013-01-09 08:06:00,
2013-01-09 02:09:00,44.4,36.3,30.15,SW,223,0.0,11.0,73,0.00,,OVC090,0.00,VWS V14.01,2013-01-09 08:09:00,
2013-01-09 02:10:00,44.4,36.3,30.15,SW,223,3.0,11.0,73,0.00,,OVC090,0.00,VWS V14.01,2013-01-09 08:10:00,
2013-01-09 02:11:00,44.2,36.1,30.15,SW,216,1.0,11.0,73,0.00,,OVC090,0.00,VWS V14.01,2013-01-09 08:11:00,
2013-01-09 02:14:00,44.2,36.1,30.16,SSW,206,0.0,11.0,73,0.00,,OVC090,0.00,VWS V14.01,2013-01-09 08:14:00,
2013-01-09 02:15:00,44.2,36.1,30.16,South,173,3.0,11.0,73,0.00,,OVC090,0.00,VWS V14.01,2013-01-09 08:15:00,
2013-01-09 02:16:00,44.2,36.1,30.16,South,177,2.0,11.0,73,0.00,,OVC090,0.00,VWS V14.01,2013-01-09 08:16:00,
2013-01-09 02:19:00,44.2,36.5,30.16,SSW,209,0.0,11.0,74,0.00,,OVC090,0.00,VWS V14.01,2013-01-09 08:19:00,
2013-01-09 02:20:00,44.2,36.5,30.16,SSW,207,4.0,11.0,74,0.00,,OVC090,0.00,VWS V14.01,2013-01-09 08:20:00,
2013-01-09 02:21:00,44.1,36.4,30.16,SSW,207,0.0,11.0,74,0.00,,OVC090,0.00,VWS V14.01,2013-01-09 08:21:00,
2013-01-09 02:24:00,44.1,36.4,30.16,SSW,200,0.0,11.0,74,0.00,,OVC090,0.00,VWS V14.01,2013-01-09 08:24:00,
2013-01-09 02:25:00,44.1,36.4,30.16,SSW,200,1.0,11.0,74,0.00,,OVC090,0.00,VWS V14.01,2013-01-09 08:25:00,
2013-01-09 02:26:00,44.1,36.4,30.16,SSW,200,0.0,11.0,74,0.00,,OVC090,0.00,VWS V14.01,2013-01-09 08:26:00,
2013-01-09 02:27:00,44.1,36.4,30.16,SSW,200,0.0,11.0,74,0.00,,OVC090,0.00,VWS V14.01,2013-01-09 08:27:00,
2013-01-09 02:30:00,44.1,36.7,30.16,SSW,211,0.0,0.0,75,0.00,,OVC090,0.00,VWS V14.01,2013-01-09 08:30:00,
2013-01-09 02:31:00,44.1,36.7,30.16,SSW,212,0.0,4.0,75,0.00,,OVC090,0.00,VWS V14.01,2013-01-09 08:31:00,
2013-01-09 02:32:00,44.1,36.7,30.16,SSW,203,7.0,7.0,75,0.00,,OVC090,0.00,VWS V14.01,2013-01-09 08:32:00,
2013-01-09 02:35:00,44.1,36.7,30.16,SSW,213,2.0,7.0,75,0.00,,OVC090,0.00,VWS V14.01,2013-01-09 08:35:00,
2013-01-09 02:36:00,44.1,36.7,30.16,SSW,200,3.0,7.0,75,0.00,,OVC090,0.00,VWS V14.01,2013-01-09 08:36:00,
2013-01-09 02:37:00,44.1,36.7,30.16,SW,217,5.0,7.0,75,0.00,,OVC090,0.00,VWS V14.01,2013-01-09 08:37:00,
2013-01-09 02:40:00,44.1,36.7,30.16,SW,222,0.0,7.0,75,0.00,,OVC090,0.00,VWS V14.01,2013-01-09 08:40:00,
2013-01-09 02:42:00,44.1,36.7,30.16,SSW,213,4.0,11.0,75,0.00,,OVC090,0.00,VWS V14.01,2013-01-09 08:42:00,
2013-01-09 02:45:00,44.1,37.0,30.17,SSW,208,2.0,11.0,76,0.00,,-RA,0.00,VWS V14.01,2013-01-09 08:45:00,
2013-01-09 02:47:00,44.2,37.1,30.17,SSW,195,2.0,11.0,76,0.00,,-RA,0.00,VWS V14.01,2013-01-09 08:47:00,
2013-01-09 02:50:00,44.2,37.1,30.17,SSW,209,0.0,11.0,76,0.00,,-RA,0.00,VWS V14.01,2013-01-09 08:50:00,
2013-01-09 02:52:00,44.2,37.1,30.17,SSW,206,3.0,11.0,76,0.00,,-RA,0.00,VWS V14.01,2013-01-09 08:52:00,
2013-01-09 02:55:00,44.2,37.5,30.17,SW,219,4.0,11.0,77,0.00,,-RA,0.00,VWS V14.01,2013-01-09 08:55:00,
2013-01-09 02:57:00,44.2,37.5,30.17,SW,214,0.0,11.0,77,0.00,,-RA,0.00,VWS V14.01,2013-01-09 08:57:00,
2013-01-09 03:00:00,44.1,37.4,30.17,South,189,1.0,4.0,77,0.00,,-RA,0.00,VWS V14.01,2013-01-09 09:00:00,
2013-01-09 03:02:00,44.1,37.4,30.17,SSW,202,0.0,4.0,77,0.00,,-RA,0.00,VWS V14.01,2013-01-09 09:02:00,
2013-01-09 03:03:00,44.0,37.6,30.17,SSW,202,3.0,4.0,78,0.00,,-RA,0.00,VWS V14.01,2013-01-09 09:03:00,
2013-01-09 03:06:00,44.0,37.6,30.17,SW,216,4.0,5.0,78,0.00,,-RA,0.00,VWS V14.01,2013-01-09 09:06:00,
2013-01-09 03:07:00,44.0,37.6,30.17,South,182,0.0,5.0,78,0.00,,-RA,0.00,VWS V14.01,2013-01-09 09:07:00,
2013-01-09 03:08:00,44.0,37.6,30.17,South,188,0.0,5.0,78,0.00,,-RA,0.00,VWS V14.01,2013-01-09 09:08:00,
2013-01-09 03:11:00,44.0,37.6,30.17,SW,217,0.0,5.0,78,0.00,,-RA,0.00,VWS V14.01,2013-01-09 09:11:00,
2013-01-09 03:13:00,44.0,37.9,30.17,SSW,198,0.0,6.0,79,0.00,,-RA,0.00,VWS V14.01,2013-01-09 09:13:00,
2013-01-09 03:16:00,43.8,37.7,30.17,South,189,0.0,6.0,79,0.01,,-RA,0.01,VWS V14.01,2013-01-09 09:16:00,
2013-01-09 03:18:00,43.7,38.0,30.17,SSW,204,1.0,7.0,80,0.01,,-RA,0.01,VWS V14.01,2013-01-09 09:18:00,
2013-01-09 03:19:00,43.7,38.0,30.17,South,187,6.0,7.0,80,0.01,,-RA,0.01,VWS V14.01,2013-01-09 09:19:00,
2013-01-09 03:21:00,43.7,38.0,30.17,South,181,0.0,7.0,80,0.01,,-RA,0.01,VWS V14.01,2013-01-09 09:21:00,
2013-01-09 03:23:00,43.5,38.1,30.17,South,181,0.0,7.0,81,0.01,,-RA,0.01,VWS V14.01,2013-01-09 09:23:00,
2013-01-09 03:24:00,43.5,38.1,30.17,South,186,0.0,7.0,81,0.01,,-RA,0.01,VWS V14.01,2013-01-09 09:24:00,
2013-01-09 03:26:00,43.5,38.1,30.17,SSW,202,0.0,7.0,81,0.01,,-RA,0.01,VWS V14.01,2013-01-09 09:26:00,
2013-01-09 03:27:00,43.5,38.1,30.17,SSW,202,1.0,7.0,81,0.01,,-RA,0.01,VWS V14.01,2013-01-09 09:27:00,
2013-01-09 03:29:00,43.5,38.1,30.18,SSW,202,0.0,7.0,81,0.01,,-RA,0.01,VWS V14.01,2013-01-09 09:29:00,
2013-01-09 03:30:00,43.5,38.4,30.18,SSW,200,0.0,7.0,82,0.01,,,0.01,VWS V14.01,2013-01-09 09:30:00,
2013-01-09 03:31:00,43.5,38.4,30.18,South,188,3.0,4.0,82,0.01,,-RA,0.01,VWS V14.01,2013-01-09 09:31:00,
2013-01-09 03:32:00,43.5,38.4,30.18,South,188,0.0,4.0,82,0.01,,-RA,0.01,VWS V14.01,2013-01-09 09:32:00,
2013-01-09 03:34:00,43.5,38.4,30.18,South,190,0.0,4.0,82,0.01,,-RA,0.01,VWS V14.01,2013-01-09 09:34:00,
2013-01-09 03:36:00,43.7,38.6,30.18,SW,216,3.0,4.0,82,0.01,,-RA,0.01,VWS V14.01,2013-01-09 09:36:00,
2013-01-09 03:37:00,43.7,38.6,30.18,SW,218,0.0,4.0,82,0.01,,-RA,0.01,VWS V14.01,2013-01-09 09:37:00,
2013-01-09 03:39:00,43.7,38.6,30.18,South,188,0.0,5.0,82,0.01,,-RA,0.01,VWS V14.01,2013-01-09 09:39:00,
2013-01-09 03:42:00,43.8,38.7,30.18,SSW,200,1.0,5.0,82,0.01,,-RA,0.01,VWS V14.01,2013-01-09 09:42:00,
2013-01-09 03:44:00,43.8,38.7,30.17,SSW,199,0.0,5.0,82,0.01,,-RA,0.01,VWS V14.01,2013-01-09 09:44:00,
2013-01-09 03:47:00,43.8,38.7,30.17,SSW,194,3.0,7.0,82,0.01,,OVC080,0.01,VWS V14.01,2013-01-09 09:47:00,
2013-01-09 03:49:00,43.8,38.7,30.17,SSW,213,0.0,7.0,82,0.01,,OVC080,0.01,VWS V14.01,2013-01-09 09:49:00,
2013-01-09 03:52:00,43.8,38.7,30.17,SW,214,0.0,7.0,82,0.01,,OVC080,0.01,VWS V14.01,2013-01-09 09:52:00,
2013-01-09 03:53:00,43.8,38.7,30.17,SW,219,0.0,7.0,82,0.01,,OVC080,0.01,VWS V14.01,2013-01-09 09:53:00,
2013-01-09 03:54:00,43.8,38.7,30.17,SSW,207,0.0,7.0,82,0.01,,OVC080,0.01,VWS V14.01,2013-01-09 09:54:00,
2013-01-09 03:55:00,43.8,38.7,30.17,SSW,207,1.0,7.0,82,0.01,,OVC080,0.01,VWS V14.01,2013-01-09 09:55:00,
2013-01-09 03:57:00,43.8,38.7,30.17,SSW,209,0.0,7.0,82,0.01,,OVC080,0.01,VWS V14.01,2013-01-09 09:57:00,
2013-01-09 03:58:00,43.7,38.6,30.17,SSW,209,0.0,7.0,82,0.01,,OVC080,0.01,VWS V14.01,2013-01-09 09:58:00,
2013-01-09 08:30:00,45.0,36.2,30.33,WSW,254,0.0,3.0,71,0.01,,OVC041,0.01,VWS V14.01,2013-01-09 14:30:00,
2013-01-09 09:00:00,46.6,35.9,30.35,NW,325,0.0,6.0,66,0.00,,OVC041,0.01,VWS V14.01,2013-01-09 15:00:00,
2013-01-09 09:11:00,43.7,36.3,30.32,WSW,246,0.0,0.0,75,0.00,,,0.01,VWS V14.01,2013-01-09 15:11:00,
2013-01-09 09:16:00,44.1,36.0,30.32,WSW,247,0.0,1.0,73,0.01,,,0.01,VWS V14.01,2013-01-09 15:16:00,
2013-01-09 09:21:00,44.4,36.0,30.32,WSW,246,0.0,1.0,72,0.01,,,0.01,VWS V14.01,2013-01-09 15:21:00,
2013-01-09 09:26:00,44.7,35.9,30.32,WSW,254,0.0,3.0,71,0.01,,,0.01,VWS V14.01,2013-01-09 15:26:00,
2013-01-09 09:27:00,44.8,36.0,30.32,WSW,254,0.0,3.0,71,0.01,,,0.01,VWS V14.01,2013-01-09 15:27:00,
2013-01-09 09:30:00,45.0,36.2,30.33,WSW,254,0.0,3.0,71,0.01,,,0.01,VWS V14.01,2013-01-09 15:30:00,
2013-01-09 09:31:00,45.0,35.8,30.33,WSW,254,0.0,0.0,70,0.00,,CLR,0.01,VWS V14.01,2013-01-09 15:31:00,
2013-01-09 09:32:00,45.0,35.8,30.33,WSW,254,0.0,0.0,70,0.00,,CLR,0.01,VWS V14.01,2013-01-09 15:32:00,
2013-01-09 09:36:00,45.3,36.1,30.33,NW,313,2.0,6.0,70,0.00,,CLR,0.01,VWS V14.01,2013-01-09 15:36:00,
2013-01-09 09:37:00,45.3,35.7,30.33,NW,314,0.0,6.0,69,0.00,,CLR,0.01,VWS V14.01,2013-01-09 15:37:00,
2013-01-09 09:41:00,45.6,36.0,30.33,WNW,296,2.0,6.0,69,0.00,,CLR,0.01,VWS V14.01,2013-01-09 15:41:00,
2013-01-09 09:42:00,45.6,36.0,30.33,WNW,296,0.0,6.0,69,0.00,,CLR,0.01,VWS V14.01,2013-01-09 15:42:00,
2013-01-09 09:46:00,45.7,36.1,30.34,NW,315,0.0,6.0,69,0.00,,CLR,0.01,VWS V14.01,2013-01-09 15:46:00,
2013-01-09 09:47:00,45.9,36.3,30.34,NW,315,0.0,6.0,69,0.00,,CLR,0.01,VWS V14.01,2013-01-09 15:47:00,
2013-01-09 09:52:00,46.0,35.7,30.34,NW,313,4.0,6.0,67,0.00,,CLR,0.01,VWS V14.01,2013-01-09 15:52:00,
2013-01-09 09:57:00,46.3,36.0,30.34,NW,306,0.0,6.0,67,0.00,,CLR,0.01,VWS V14.01,2013-01-09 15:57:00,
2013-01-09 10:00:00,46.6,35.9,30.35,NW,325,0.0,6.0,66,0.00,,,0.01,VWS V14.01,2013-01-09 16:00:00,
2013-01-09 10:02:00,46.6,35.9,30.35,WNW,298,1.0,2.0,66,0.00,,CLR,0.01,VWS V14.01,2013-01-09 16:02:00,
2013-01-09 10:03:00,46.7,36.0,30.35,WNW,300,0.0,2.0,66,0.00,,CLR,0.01,VWS V14.01,2013-01-09 16:03:00,
2013-01-09 10:07:00,47.2,36.0,30.35,NW,309,2.0,2.0,65,0.00,,CLR,0.01,VWS V14.01,2013-01-09 16:07:00,
2013-01-09 10:08:00,47.2,36.0,30.35,NW,310,0.0,2.0,65,0.00,,CLR,0.01,VWS V14.01,2013-01-09 16:08:00,
2013-01-09 10:12:00,47.5,35.5,30.35,WNW,298,2.0,5.0,63,0.00,,CLR,0.01,VWS V14.01,2013-01-09 16:12:00,
2013-01-09 10:13:00,47.5,35.5,30.35,WNW,288,3.0,5.0,63,0.00,,CLR,0.01,VWS V14.01,2013-01-09 16:13:00,
2013-01-09 10:17:00,47.6,35.6,30.35,NW,313,0.0,5.0,63,0.00,,CLR,0.01,VWS V14.01,2013-01-09 16:17:00,
2013-01-09 10:18:00,47.6,35.6,30.35,NW,315,2.0,5.0,63,0.00,,CLR,0.01,VWS V14.01,2013-01-09 16:18:00,
2013-01-09 10:22:00,47.9,35.9,30.35,NW,305,0.0,5.0,63,0.00,,CLR,0.01,VWS V14.01,2013-01-09 16:22:00,
2013-01-09 10:23:00,47.9,35.5,30.35,NW,309,0.0,5.0,62,0.00,,CLR,0.01,VWS V14.01,2013-01-09 16:23:00,
2013-01-09 10:27:00,48.1,35.7,30.35,NW,306,0.0,5.0,62,0.00,,CLR,0.01,VWS V14.01,2013-01-09 16:27:00,
2013-01-09 10:28:00,48.2,35.8,30.35,WNW,302,0.0,5.0,62,0.00,,CLR,0.01,VWS V14.01,2013-01-09 16:28:00,
2013-01-09 10:30:00,48.2,35.8,30.35,West,280,0.0,5.0,62,0.00,,,0.01,VWS V14.01,2013-01-09 16:30:00,
2013-01-09 10:32:00,48.4,36.0,30.35,NNW,332,0.0,5.0,62,0.00,,CLR,0.01,VWS V14.01,2013-01-09 16:32:00,
2013-01-09 10:33:00,48.4,36.0,30.35,NNW,331,0.0,5.0,62,0.00,,CLR,0.01,VWS V14.01,2013-01-09 16:33:00,
2013-01-09 10:37:00,49.0,36.2,30.35,WNW,285,0.0,5.0,61,0.00,,CLR,0.01,VWS V14.01,2013-01-09 16:37:00,
2013-01-09 10:38:00,49.0,36.2,30.35,WNW,284,0.0,5.0,61,0.00,,CLR,0.01,VWS V14.01,2013-01-09 16:38:00,
2013-01-09 10:39:00,49.0,36.2,30.35,WNW,284,0.0,5.0,61,0.00,,CLR,0.01,VWS V14.01,2013-01-09 16:39:00,
2013-01-09 10:42:00,49.3,36.0,30.35,West,277,0.0,5.0,60,0.00,,CLR,0.01,VWS V14.01,2013-01-09 16:42:00,
2013-01-09 10:43:00,49.3,36.0,30.35,West,278,4.0,5.0,60,0.00,,CLR,0.01,VWS V14.01,2013-01-09 16:43:00,
2013-01-09 10:44:00,49.3,36.0,30.35,WNW,298,1.0,5.0,60,0.00,,CLR,0.01,VWS V14.01,2013-01-09 16:44:00,
2013-01-09 10:47:00,49.4,35.7,30.35,NW,306,0.0,8.0,59,0.00,,CLR,0.01,VWS V14.01,2013-01-09 16:47:00,
2013-01-09 10:48:00,49.4,35.7,30.35,NW,306,0.0,8.0,59,0.00,,CLR,0.01,VWS V14.01,2013-01-09 16:48:00,
2013-01-09 10:49:00,49.5,35.3,30.35,NW,311,0.0,8.0,58,0.00,,CLR,0.01,VWS V14.01,2013-01-09 16:49:00,
2013-01-09 10:52:00,50.0,35.8,30.35,NW,304,0.0,8.0,58,0.00,,CLR,0.01,VWS V14.01,2013-01-09 16:52:00,
2013-01-09 10:53:00,50.0,35.8,30.35,NW,304,3.0,8.0,58,0.00,,CLR,0.01,VWS V14.01,2013-01-09 16:53:00,
2013-01-09 10:54:00,50.1,35.5,30.35,NW,317,1.0,8.0,57,0.00,,CLR,0.01,VWS V14.01,2013-01-09 16:54:00,
2013-01-09 10:58:00,50.3,35.7,30.35,WNW,289,0.0,8.0,57,0.00,,CLR,0.01,VWS V14.01,2013-01-09 16:58:00,
2013-01-09 10:59:00,50.3,35.2,30.34,West,270,0.0,8.0,56,0.00,,CLR,0.01,VWS V14.01,2013-01-09 16:59:00,
2013-01-09 11:00:00,50.3,35.2,30.34,WNW,284,0.0,8.0,56,0.00,,,0.01,VWS V14.01,2013-01-09 17:00:00,
2013-01-09 11:03:00,50.4,35.3,30.34,WNW,298,0.0,5.0,56,0.00,,CLR,0.01,VWS V14.01,2013-01-09 17:03:00,
2013-01-09 11:04:00,50.4,35.3,30.34,WNW,294,0.0,5.0,56,0.00,,CLR,0.01,VWS V14.01,2013-01-09 17:04:00,
2013-01-09 11:08:00,50.6,35.5,30.34,NNW,329,0.0,6.0,56,0.00,,CLR,0.01,VWS V14.01,2013-01-09 17:08:00,
2013-01-09 11:09:00,50.6,34.6,30.34,North,349,1.0,6.0,54,0.00,,CLR,0.01,VWS V14.01,2013-01-09 17:09:00,
2013-01-09 11:13:00,51.2,35.6,30.34,WNW,292,0.0,9.0,55,0.00,,CLR,0.01,VWS V14.01,2013-01-09 17:13:00,
2013-01-09 11:14:00,51.2,35.6,30.34,WNW,303,4.0,9.0,55,0.00,,CLR,0.01,VWS V14.01,2013-01-09 17:14:00,
2013-01-09 11:18:00,51.2,35.1,30.34,NW,315,1.0,9.0,54,0.00,,CLR,0.01,VWS V14.01,2013-01-09 17:18:00,
2013-01-09 11:19:00,51.0,35.0,30.34,North,355,1.0,9.0,54,0.00,,CLR,0.01,VWS V14.01,2013-01-09 17:19:00,
2013-01-09 11:20:00,51.0,34.5,30.34,WNW,300,4.0,10.0,53,0.00,,CLR,0.01,VWS V14.01,2013-01-09 17:20:00,
2013-01-09 11:23:00,50.6,34.6,30.34,NNW,333,3.0,10.0,54,0.00,,CLR,0.01,VWS V14.01,2013-01-09 17:23:00,
2013-01-09 11:24:00,50.6,34.6,30.34,NW,309,4.0,10.0,54,0.00,,CLR,0.01,VWS V14.01,2013-01-09 17:24:00,
2013-01-09 11:25:00,50.6,34.6,30.34,WNW,296,0.0,10.0,54,0.00,,CLR,0.01,VWS V14.01,2013-01-09 17:25:00,
2013-01-09 11:28:00,50.9,34.9,30.34,West,279,0.0,10.0,54,0.00,,CLR,0.01,VWS V14.01,2013-01-09 17:28:00,
2013-01-09 11:29:00,50.9,34.9,30.35,NW,308,0.0,10.0,54,0.00,,CLR,0.01,VWS V14.01,2013-01-09 17:29:00,
2013-01-09 11:30:00,50.7,34.7,30.35,WNW,296,0.0,0.0,54,0.00,,CLR,0.01,VWS V14.01,2013-01-09 17:30:00,
2013-01-09 11:33:00,50.7,34.7,30.35,NW,309,0.0,5.0,54,0.00,,CLR,0.01,VWS V14.01,2013-01-09 17:33:00,
2013-01-09 11:34:00,50.9,34.9,30.35,WNW,285,2.0,5.0,54,0.00,,CLR,0.01,VWS V14.01,2013-01-09 17:34:00,
2013-01-09 11:35:00,50.9,34.9,30.35,WNW,291,0.0,5.0,54,0.00,,CLR,0.01,VWS V14.01,2013-01-09 17:35:00,
2013-01-09 11:38:00,50.7,34.7,30.35,NW,325,1.0,9.0,54,0.00,,CLR,0.01,VWS V14.01,2013-01-09 17:38:00,
2013-01-09 11:39:00,50.9,35.3,30.35,NW,325,0.0,9.0,55,0.00,,CLR,0.01,VWS V14.01,2013-01-09 17:39:00,
2013-01-09 11:40:00,50.9,35.3,30.35,NW,316,0.0,9.0,55,0.00,,CLR,0.01,VWS V14.01,2013-01-09 17:40:00,
2013-01-09 11:43:00,51.5,35.9,30.35,NW,316,0.0,9.0,55,0.00,,CLR,0.01,VWS V14.01,2013-01-09 17:43:00,
2013-01-09 11:44:00,51.6,36.0,30.35,NW,316,1.0,9.0,55,0.00,,CLR,0.01,VWS V14.01,2013-01-09 17:44:00,
2013-01-09 11:45:00,51.6,35.5,30.35,NW,304,6.0,9.0,54,0.00,,CLR,0.01,VWS V14.01,2013-01-09 17:45:00,
2013-01-09 11:46:00,51.6,35.5,30.35,NW,307,0.0,9.0,54,0.00,,CLR,0.01,VWS V14.01,2013-01-09 17:46:00,
2013-01-09 11:48:00,51.6,35.0,30.35,WNW,296,3.0,9.0,53,0.00,,CLR,0.01,VWS V14.01,2013-01-09 17:48:00,
2013-01-09 11:49:00,51.5,35.0,30.35,WNW,294,0.0,9.0,53,0.00,,CLR,0.01,VWS V14.01,2013-01-09 17:49:00,
2013-01-09 11:50:00,51.5,35.0,30.35,WNW,289,5.0,9.0,53,0.00,,CLR,0.01,VWS V14.01,2013-01-09 17:50:00,
2013-01-09 11:51:00,51.5,35.4,30.35,NW,313,3.0,9.0,54,0.00,,CLR,0.01,VWS V14.01,2013-01-09 17:51:00,
2013-01-09 11:53:00,51.5,35.4,30.35,NNW,330,3.0,9.0,54,0.00,,CLR,0.01,VWS V14.01,2013-01-09 17:53:00,
2013-01-09 11:54:00,51.5,35.4,30.35,NW,311,5.0,9.0,54,0.00,,CLR,0.01,VWS V14.01,2013-01-09 17:54:00,
2013-01-09 11:55:00,51.5,35.0,30.35,WNW,300,0.0,9.0,53,0.00,,CLR,0.01,VWS V14.01,2013-01-09 17:55:00,
2013-01-09 11:56:00,51.6,35.5,30.35,NW,310,0.0,9.0,54,0.00,,CLR,0.01,VWS V14.01,2013-01-09 17:56:00,
2013-01-09 11:59:00,51.8,35.2,30.34,WNW,284,0.0,9.0,53,0.00,,CLR,0.01,VWS V14.01,2013-01-09 17:59:00,
2013-01-09 12:00:00,51.9,35.8,30.34,NW,305,4.0,5.0,54,0.00,,CLR,0.01,VWS V14.01,2013-01-09 18:00:00,
2013-01-09 12:01:00,51.9,35.3,30.34,WNW,286,3.0,7.0,53,0.00,,CLR,0.01,VWS V14.01,2013-01-09 18:01:00,
2013-01-09 12:04:00,51.5,34.5,30.34,WNW,290,5.0,10.0,52,0.00,,CLR,0.01,VWS V14.01,2013-01-09 18:04:00,
2013-01-09 12:05:00,51.5,34.5,30.34,WNW,293,3.0,11.0,52,0.00,,CLR,0.01,VWS V14.01,2013-01-09 18:05:00,
2013-01-09 12:06:00,51.5,34.5,30.34,NW,313,0.0,11.0,52,0.00,,CLR,0.01,VWS V14.01,2013-01-09 18:06:00,
2013-01-09 12:09:00,51.5,34.5,30.34,WNW,297,7.0,11.0,52,0.00,,CLR,0.01,VWS V14.01,2013-01-09 18:09:00,
2013-01-09 12:10:00,51.5,34.5,30.34,NW,326,5.0,11.0,52,0.00,,CLR,0.01,VWS V14.01,2013-01-09 18:10:00,
2013-01-09 12:11:00,51.6,34.6,30.34,NW,326,0.0,11.0,52,0.00,,CLR,0.01,VWS V14.01,2013-01-09 18:11:00,
2013-01-09 12:14:00,51.9,35.3,30.33,NW,304,0.0,11.0,53,0.00,,CLR,0.01,VWS V14.01,2013-01-09 18:14:00,
2013-01-09 12:15:00,52.1,35.5,30.33,NW,304,0.0,11.0,53,0.00,,CLR,0.01,VWS V14.01,2013-01-09 18:15:00,
2013-01-09 12:16:00,52.4,35.3,30.33,NW,326,2.0,11.0,52,0.00,,CLR,0.01,VWS V14.01,2013-01-09 18:16:00,
2013-01-09 12:19:00,52.8,35.2,30.33,NW,326,0.0,11.0,51,0.00,,CLR,0.01,VWS V14.01,2013-01-09 18:19:00,
2013-01-09 12:20:00,53.0,35.9,30.33,NW,326,0.0,11.0,52,0.00,,CLR,0.01,VWS V14.01,2013-01-09 18:20:00,
2013-01-09 12:21:00,53.1,35.5,30.33,WNW,302,0.0,11.0,51,0.00,,CLR,0.01,VWS V14.01,2013-01-09 18:21:00,
2013-01-09 12:24:00,53.1,35.0,30.33,NW,309,3.0,11.0,50,0.00,,CLR,0.01,VWS V14.01,2013-01-09 18:24:00,
2013-01-09 12:25:00,53.1,35.0,30.33,WSW,252,4.0,11.0,50,0.00,,CLR,0.01,VWS V14.01,2013-01-09 18:25:00,
2013-01-09 12:26:00,53.0,34.4,30.33,WNW,282,6.0,11.0,49,0.00,,CLR,0.01,VWS V14.01,2013-01-09 18:26:00,
2013-01-09 12:29:00,52.8,34.7,30.32,NNW,329,3.0,11.0,50,0.00,,CLR,0.01,VWS V14.01,2013-01-09 18:29:00,
2013-01-09 12:30:00,52.8,34.7,30.32,NW,321,0.0,4.0,50,0.00,,CLR,0.01,VWS V14.01,2013-01-09 18:30:00,
2013-01-09 12:31:00,52.8,35.2,30.32,NW,315,0.0,4.0,51,0.00,,CLR,0.01,VWS V14.01,2013-01-09 18:31:00,
2013-01-09 12:34:00,53.1,34.5,30.32,WNW,298,0.0,4.0,49,0.00,,CLR,0.01,VWS V14.01,2013-01-09 18:34:00,
2013-01-09 12:35:00,53.2,35.6,30.32,WNW,298,0.0,4.0,51,0.00,,CLR,0.01,VWS V14.01,2013-01-09 18:35:00,
2013-01-09 12:36:00,53.4,35.7,30.32,WSW,246,0.0,4.0,51,0.00,,CLR,0.01,VWS V14.01,2013-01-09 18:36:00,
2013-01-09 12:39:00,53.5,35.3,30.32,WSW,244,2.0,7.0,50,0.00,,CLR,0.01,VWS V14.01,2013-01-09 18:39:00,
2013-01-09 12:40:00,53.5,35.3,30.32,WSW,244,0.0,7.0,50,0.00,,CLR,0.01,VWS V14.01,2013-01-09 18:40:00,
2013-01-09 12:41:00,53.5,34.8,30.32,WNW,290,1.0,7.0,49,0.00,,CLR,0.01,VWS V14.01,2013-01-09 18:41:00,
2013-01-09 12:42:00,53.5,35.3,30.32,NNW,328,0.0,7.0,50,0.00,,CLR,0.01,VWS V14.01,2013-01-09 18:42:00,
2013-01-09 12:44:00,53.7,35.5,30.32,WNW,286,2.0,7.0,50,0.00,,CLR,0.01,VWS V14.01,2013-01-09 18:44:00,
2013-01-09 12:45:00,53.7,35.0,30.32,NW,323,2.0,7.0,49,0.00,,CLR,0.01,VWS V14.01,2013-01-09 18:45:00,
2013-01-09 12:48:00,53.2,34.5,30.32,West,271,6.0,8.0,49,0.00,,CLR,0.01,VWS V14.01,2013-01-09 18:48:00,
2013-01-09 12:53:00,52.7,34.6,30.32,NW,319,0.0,9.0,50,0.00,,CLR,0.01,VWS V14.01,2013-01-09 18:53:00,
2013-01-09 12:58:00,53.0,34.9,30.32,NW,326,0.0,9.0,50,0.00,,CLR,0.01,VWS V14.01,2013-01-09 18:58:00,
2013-01-09 13:00:00,53.1,35.0,30.32,WNW,293,4.0,9.0,50,0.00,,,0.01,VWS V14.01,2013-01-09 19:00:00,
2013-01-09 13:03:00,53.2,34.0,30.32,West,271,2.0,5.0,48,0.00,,CLR,0.01,VWS V14.01,2013-01-09 19:03:00,
2013-01-09 13:08:00,53.4,35.2,30.32,WNW,302,4.0,5.0,50,0.00,,CLR,0.01,VWS V14.01,2013-01-09 19:08:00,
2013-01-09 13:13:00,53.8,34.6,30.32,WNW,288,3.0,6.0,48,0.00,,CLR,0.01,VWS V14.01,2013-01-09 19:13:00,
2013-01-09 13:14:00,53.8,34.6,30.32,WNW,290,5.0,6.0,48,0.00,,CLR,0.01,VWS V14.01,2013-01-09 19:14:00,
2013-01-09 13:19:00,53.7,34.0,30.32,WNW,282,0.0,7.0,47,0.00,,CLR,0.01,VWS V14.01,2013-01-09 19:19:00,
2013-01-09 13:24:00,54.0,34.2,30.32,NNW,335,5.0,11.0,47,0.00,,CLR,0.01,VWS V14.01,2013-01-09 19:24:00,
2013-01-09 13:29:00,54.0,34.2,30.32,WNW,297,0.0,12.0,47,0.00,,CLR,0.01,VWS V14.01,2013-01-09 19:29:00,
2013-01-09 13:30:00,54.0,34.2,30.32,WNW,298,0.0,12.0,47,0.00,,,0.01,VWS V14.01,2013-01-09 19:30:00,
2013-01-09 13:34:00,54.3,34.5,30.32,NW,313,2.0,7.0,47,0.00,,CLR,0.01,VWS V14.01,2013-01-09 19:34:00,
2013-01-09 13:39:00,54.1,34.3,30.32,WNW,286,5.0,9.0,47,0.00,,CLR,0.01,VWS V14.01,2013-01-09 19:39:00,
2013-01-09 13:40:00,54.1,34.3,30.32,WNW,290,5.0,9.0,47,0.00,,CLR,0.01,VWS V14.01,2013-01-09 19:40:00,
2013-01-09 13:44:00,54.3,34.5,30.33,WNW,293,1.0,9.0,47,0.00,,CLR,0.01,VWS V14.01,2013-01-09 19:44:00,
2013-01-09 13:45:00,54.4,35.1,30.33,NW,304,5.0,9.0,48,0.00,,CLR,0.01,VWS V14.01,2013-01-09 19:45:00,
2013-01-09 13:49:00,54.6,34.8,30.33,West,262,2.0,9.0,47,0.00,,CLR,0.01,VWS V14.01,2013-01-09 19:49:00,
2013-01-09 13:50:00,54.7,34.9,30.33,WSW,254,3.0,9.0,47,0.00,,CLR,0.01,VWS V14.01,2013-01-09 19:50:00,
2013-01-09 13:54:00,54.4,34.1,30.33,WNW,286,0.0,9.0,46,0.00,,CLR,0.01,VWS V14.01,2013-01-09 19:54:00,
2013-01-09 13:55:00,54.4,34.1,30.33,WNW,286,0.0,9.0,46,0.00,,CLR,0.01,VWS V14.01,2013-01-09 19:55:00,
2013-01-09 13:59:00,54.7,35.4,30.33,WNW,285,4.0,9.0,48,0.00,,CLR,0.01,VWS V14.01,2013-01-09 19:59:00,
2013-01-09 14:00:00,54.7,34.9,30.33,WNW,286,0.0,1.0,47,0.00,,CLR,0.01,VWS V14.01,2013-01-09 20:00:00,
2013-01-09 14:04:00,54.7,32.7,30.33,NNW,329,12.0,13.0,43,0.00,,CLR,0.01,VWS V14.01,2013-01-09 20:04:00,
2013-01-09 14:05:00,54.6,31.4,30.33,NNW,339,7.0,13.0,41,0.00,,CLR,0.01,VWS V14.01,2013-01-09 20:05:00,
2013-01-09 14:06:00,54.6,31.4,30.33,NW,321,3.0,13.0,41,0.00,,CLR,0.01,VWS V14.01,2013-01-09 20:06:00,
2013-01-09 14:10:00,54.6,32.0,30.33,West,281,3.0,13.0,42,0.00,,CLR,0.01,VWS V14.01,2013-01-09 20:10:00,
2013-01-09 14:11:00,54.4,31.8,30.33,WNW,298,7.0,13.0,42,0.00,,CLR,0.01,VWS V14.01,2013-01-09 20:11:00,
2013-01-09 14:15:00,54.1,31.5,30.35,North,349,4.0,13.0,42,0.00,,CLR,0.01,VWS V14.01,2013-01-09 20:15:00,
2013-01-09 14:16:00,54.1,31.5,30.35,NW,324,2.0,13.0,42,0.00,,CLR,0.01,VWS V14.01,2013-01-09 20:16:00,
2013-01-09 14:20:00,54.0,31.5,30.35,NW,319,4.0,13.0,42,0.00,,CLR,0.01,VWS V14.01,2013-01-09 20:20:00,
2013-01-09 14:21:00,53.8,30.7,30.35,NW,307,6.0,13.0,41,0.00,,CLR,0.01,VWS V14.01,2013-01-09 20:21:00,
2013-01-09 14:25:00,53.5,29.8,30.35,NW,304,10.0,13.0,40,0.00,,CLR,0.01,VWS V14.01,2013-01-09 20:25:00,
2013-01-09 14:26:00,53.5,30.4,30.35,NNW,338,10.0,13.0,41,0.00,,CLR,0.01,VWS V14.01,2013-01-09 20:26:00,
2013-01-09 14:30:00,53.2,30.7,30.35,WNW,300,5.0,9.0,42,0.00,,CLR,0.01,VWS V14.01,2013-01-09 20:30:00,
2013-01-09 14:31:00,53.2,30.7,30.35,NW,306,2.0,9.0,42,0.00,,CLR,0.01,VWS V14.01,2013-01-09 20:31:00,
2013-01-09 14:35:00,53.2,31.3,30.35,WNW,300,0.0,9.0,43,0.00,,CLR,0.01,VWS V14.01,2013-01-09 20:35:00,
2013-01-09 14:36:00,53.2,31.3,30.35,WNW,300,0.0,9.0,43,0.00,,CLR,0.01,VWS V14.01,2013-01-09 20:36:00,
2013-01-09 14:37:00,53.2,31.9,30.35,NW,306,2.0,9.0,44,0.00,,CLR,0.01,VWS V14.01,2013-01-09 20:37:00,
2013-01-09 14:40:00,53.2,31.9,30.35,WNW,301,2.0,9.0,44,0.00,,CLR,0.01,VWS V14.01,2013-01-09 20:40:00,
2013-01-09 14:41:00,53.2,31.9,30.35,NW,304,1.0,9.0,44,0.00,,CLR,0.01,VWS V14.01,2013-01-09 20:41:00,
2013-01-09 14:42:00,53.2,32.4,30.35,NW,317,0.0,9.0,45,0.00,,CLR,0.01,VWS V14.01,2013-01-09 20:42:00,
2013-01-09 14:45:00,53.2,32.4,30.35,NW,312,3.0,9.0,45,0.00,,CLR,0.01,VWS V14.01,2013-01-09 20:45:00,
2013-01-09 14:46:00,53.1,31.8,30.35,NW,313,0.0,9.0,44,0.00,,CLR,0.01,VWS V14.01,2013-01-09 20:46:00,
2013-01-09 14:47:00,53.1,32.3,30.35,NW,314,4.0,9.0,45,0.00,,CLR,0.01,VWS V14.01,2013-01-09 20:47:00,
2013-01-09 14:51:00,53.1,32.3,30.35,WNW,296,1.0,10.0,45,0.00,,CLR,0.01,VWS V14.01,2013-01-09 20:51:00,
2013-01-09 14:52:00,53.1,31.8,30.35,WNW,293,0.0,10.0,44,0.00,,CLR,0.01,VWS V14.01,2013-01-09 20:52:00,
2013-01-09 14:56:00,53.1,31.8,30.35,West,271,1.0,10.0,44,0.00,,CLR,0.01,VWS V14.01,2013-01-09 20:56:00,
2013-01-09 14:57:00,53.0,32.2,30.35,NW,323,4.0,10.0,45,0.00,,CLR,0.01,VWS V14.01,2013-01-09 20:57:00,
2013-01-09 15:00:00,53.0,32.2,30.35,WNW,298,0.0,10.0,45,0.00,,,0.01,VWS V14.01,2013-01-09 21:00:00,
2013-01-09 15:01:00,53.0,32.2,30.35,WNW,300,0.0,6.0,45,0.00,,CLR,0.01,VWS V14.01,2013-01-09 21:01:00,
2013-01-09 15:02:00,53.0,32.2,30.35,WNW,300,2.0,6.0,45,0.00,,CLR,0.01,VWS V14.01,2013-01-09 21:02:00,
2013-01-09 15:06:00,53.0,32.2,30.35,NW,319,2.0,7.0,45,0.00,,CLR,0.01,VWS V14.01,2013-01-09 21:06:00,
2013-01-09 15:07:00,53.0,32.2,30.35,NW,326,3.0,7.0,45,0.00,,CLR,0.01,VWS V14.01,2013-01-09 21:07:00,
2013-01-09 15:11:00,53.0,32.2,30.35,NW,319,3.0,8.0,45,0.00,,CLR,0.01,VWS V14.01,2013-01-09 21:11:00,
2013-01-09 15:12:00,52.8,32.1,30.35,WNW,301,0.0,8.0,45,0.00,,CLR,0.01,VWS V14.01,2013-01-09 21:12:00,
2013-01-09 15:16:00,52.8,32.1,30.36,NW,320,0.0,8.0,45,0.00,,CLR,0.01,VWS V14.01,2013-01-09 21:16:00,
2013-01-09 15:17:00,52.7,32.0,30.36,NW,319,6.0,8.0,45,0.00,,CLR,0.01,VWS V14.01,2013-01-09 21:17:00,
2013-01-09 15:18:00,52.7,32.0,30.36,NW,308,4.0,8.0,45,0.00,,CLR,0.01,VWS V14.01,2013-01-09 21:18:00,
2013-01-09 15:21:00,52.5,31.2,30.36,NW,308,3.0,8.0,44,0.00,,CLR,0.01,VWS V14.01,2013-01-09 21:21:00,
2013-01-09 15:22:00,52.5,31.8,30.36,NW,319,7.0,9.0,45,0.00,,CLR,0.01,VWS V14.01,2013-01-09 21:22:00,
2013-01-09 15:23:00,52.5,31.2,30.36,WNW,294,0.0,9.0,44,0.00,,CLR,0.01,VWS V14.01,2013-01-09 21:23:00,
2013-01-09 15:26:00,52.4,31.1,30.36,NW,308,0.0,9.0,44,0.00,,CLR,0.01,VWS V14.01,2013-01-09 21:26:00,
2013-01-09 15:27:00,52.4,31.1,30.36,NW,306,0.0,9.0,44,0.00,,CLR,0.01,VWS V14.01,2013-01-09 21:27:00,
2013-01-09 15:28:00,52.4,31.7,30.36,NNE,19,3.0,9.0,45,0.00,,CLR,0.01,VWS V14.01,2013-01-09 21:28:00,
2013-01-09 15:30:00,52.2,31.0,30.37,NNW,328,6.0,10.0,44,0.00,,,0.01,VWS V14.01,2013-01-09 21:30:00,
2013-01-09 15:31:00,52.2,31.0,30.37,WNW,291,3.0,6.0,44,0.00,,CLR,0.01,VWS V14.01,2013-01-09 21:31:00,
2013-01-09 15:32:00,52.1,30.9,30.37,WNW,290,0.0,6.0,44,0.00,,CLR,0.01,VWS V14.01,2013-01-09 21:32:00,
2013-01-09 15:33:00,52.1,30.9,30.37,NNW,329,5.0,7.0,44,0.00,,CLR,0.01,VWS V14.01,2013-01-09 21:33:00,
2013-01-09 15:36:00,51.9,30.1,30.37,WNW,297,4.0,10.0,43,0.00,,CLR,0.01,VWS V14.01,2013-01-09 21:36:00,
2013-01-09 15:37:00,51.9,30.1,30.37,NW,314,3.0,10.0,43,0.00,,CLR,0.01,VWS V14.01,2013-01-09 21:37:00,
2013-01-09 15:38:00,51.8,30.0,30.37,NW,307,4.0,12.0,43,0.00,,CLR,0.01,VWS V14.01,2013-01-09 21:38:00,
2013-01-09 15:41:00,51.6,30.4,30.37,NW,311,3.0,12.0,44,0.00,,CLR,0.01,VWS V14.01,2013-01-09 21:41:00,
2013-01-09 15:42:00,51.6,30.4,30.37,WNW,286,1.0,12.0,44,0.00,,CLR,0.01,VWS V14.01,2013-01-09 21:42:00,
2013-01-09 15:43:00,51.6,31.0,30.37,NW,319,0.0,12.0,45,0.00,,CLR,0.01,VWS V14.01,2013-01-09 21:43:00,
2013-01-09 15:46:00,51.5,30.9,30.37,NW,312,2.0,12.0,45,0.00,,CLR,0.01,VWS V14.01,2013-01-09 21:46:00,
2013-01-09 15:47:00,51.5,30.9,30.37,NNW,347,5.0,12.0,45,0.00,,CLR,0.01,VWS V14.01,2013-01-09 21:47:00,
2013-01-09 15:48:00,51.5,30.9,30.37,NW,319,6.0,12.0,45,0.00,,CLR,0.01,VWS V14.01,2013-01-09 21:48:00,
2013-01-09 15:51:00,51.2,31.1,30.37,NW,313,6.0,12.0,46,0.00,,CLR,0.01,VWS V14.01,2013-01-09 21:51:00,
2013-01-09 15:52:00,51.2,31.1,30.37,NW,308,5.0,12.0,46,0.00,,CLR,0.01,VWS V14.01,2013-01-09 21:52:00,
2013-01-09 15:53:00,51.2,31.1,30.37,NW,312,4.0,12.0,46,0.00,,CLR,0.01,VWS V14.01,2013-01-09 21:53:00,
2013-01-09 15:56:00,51.0,31.5,30.37,NW,322,5.0,12.0,47,0.00,,CLR,0.01,VWS V14.01,2013-01-09 21:56:00,
2013-01-09 15:57:00,51.0,31.5,30.37,North,355,4.0,12.0,47,0.00,,CLR,0.01,VWS V14.01,2013-01-09 21:57:00,
2013-01-09 15:58:00,50.9,31.9,30.37,NW,312,6.0,12.0,48,0.00,,CLR,0.01,VWS V14.01,2013-01-09 21:58:00,
2013-01-09 16:00:00,50.9,31.9,30.38,NW,323,0.0,12.0,48,0.00,,,0.01,VWS V14.01,2013-01-09 22:00:00,
2013-01-09 16:02:00,50.7,32.2,30.38,NNW,341,3.0,5.0,49,0.00,,CLR,0.01,VWS V14.01,2013-01-09 22:02:00,
2013-01-09 16:03:00,50.7,32.8,30.38,NNW,336,0.0,5.0,50,0.00,,CLR,0.01,VWS V14.01,2013-01-09 22:03:00,
2013-01-09 16:04:00,50.7,32.8,30.38,NNW,335,0.0,5.0,50,0.00,,CLR,0.01,VWS V14.01,2013-01-09 22:04:00,
2013-01-09 16:07:00,50.4,32.5,30.38,NW,321,0.0,5.0,50,0.00,,CLR,0.01,VWS V14.01,2013-01-09 22:07:00,
2013-01-09 16:08:00,50.4,33.0,30.38,NNW,327,3.0,7.0,51,0.00,,CLR,0.01,VWS V14.01,2013-01-09 22:08:00,
2013-01-09 16:09:00,50.4,33.0,30.38,NNW,335,0.0,7.0,51,0.00,,CLR,0.01,VWS V14.01,2013-01-09 22:09:00,
2013-01-09 16:12:00,50.1,33.2,30.38,NNW,327,1.0,8.0,52,0.00,,CLR,0.01,VWS V14.01,2013-01-09 22:12:00,
2013-01-09 16:13:00,50.1,33.2,30.38,NW,323,3.0,8.0,52,0.00,,CLR,0.01,VWS V14.01,2013-01-09 22:13:00,
2013-01-09 16:14:00,50.1,33.2,30.38,NW,316,0.0,8.0,52,0.00,,CLR,0.01,VWS V14.01,2013-01-09 22:14:00,
2013-01-09 16:17:00,49.8,33.4,30.38,NW,315,0.0,8.0,53,0.00,,CLR,0.01,VWS V14.01,2013-01-09 22:17:00,
2013-01-09 16:18:00,49.8,33.4,30.38,NW,321,5.0,8.0,53,0.00,,CLR,0.01,VWS V14.01,2013-01-09 22:18:00,
2013-01-09 16:19:00,49.8,33.4,30.38,NW,322,3.0,8.0,53,0.00,,CLR,0.01,VWS V14.01,2013-01-09 22:19:00,
2013-01-09 16:22:00,49.7,33.3,30.38,NW,319,0.0,8.0,53,0.00,,CLR,0.01,VWS V14.01,2013-01-09 22:22:00,
2013-01-09 16:23:00,49.5,33.6,30.38,NW,320,0.0,8.0,54,0.00,,CLR,0.01,VWS V14.01,2013-01-09 22:23:00,
2013-01-09 16:24:00,49.5,33.6,30.38,North,351,3.0,8.0,54,0.00,,CLR,0.01,VWS V14.01,2013-01-09 22:24:00,
2013-01-09 16:27:00,49.4,33.5,30.38,NNW,346,0.0,8.0,54,0.00,,CLR,0.01,VWS V14.01,2013-01-09 22:27:00,
2013-01-09 16:29:00,49.4,33.5,30.39,NNW,346,0.0,8.0,54,0.00,,CLR,0.01,VWS V14.01,2013-01-09 22:29:00,
2013-01-09 16:30:00,49.4,33.5,30.39,NW,314,1.0,8.0,54,0.00,,,0.01,VWS V14.01,2013-01-09 22:30:00,
2013-01-09 16:32:00,49.1,33.7,30.39,NW,316,0.0,3.0,55,0.00,,CLR,0.01,VWS V14.01,2013-01-09 22:32:00,
2013-01-09 16:34:00,49.1,33.7,30.39,NW,317,0.0,3.0,55,0.00,,CLR,0.01,VWS V14.01,2013-01-09 22:34:00,
2013-01-09 16:37:00,48.8,33.4,30.39,NW,321,0.0,4.0,55,0.00,,CLR,0.01,VWS V14.01,2013-01-09 22:37:00,
2013-01-09 16:39:00,48.8,33.8,30.39,NW,322,0.0,4.0,56,0.00,,CLR,0.01,VWS V14.01,2013-01-09 22:39:00,
2013-01-09 16:42:00,48.7,33.7,30.39,NNW,330,0.0,4.0,56,0.00,,CLR,0.01,VWS V14.01,2013-01-09 22:42:00,
2013-01-09 16:43:00,48.5,33.5,30.39,NNW,330,0.0,4.0,56,0.00,,CLR,0.01,VWS V14.01,2013-01-09 22:43:00,
2013-01-09 16:44:00,48.5,33.5,30.39,NNW,330,0.0,4.0,56,0.00,,CLR,0.01,VWS V14.01,2013-01-09 22:44:00,
2013-01-09 16:47:00,48.4,33.9,30.39,NNW,330,0.0,4.0,57,0.00,,CLR,0.01,VWS V14.01,2013-01-09 22:47:00,
2013-01-09 16:48:00,48.4,33.9,30.39,NNW,330,0.0,4.0,57,0.00,,CLR,0.01,VWS V14.01,2013-01-09 22:48:00,
2013-01-09 16:49:00,48.2,33.7,30.39,NNW,330,0.0,4.0,57,0.00,,CLR,0.01,VWS V14.01,2013-01-09 22:49:00,
2013-01-09 16:52:00,48.1,33.6,30.39,NNW,330,0.0,4.0,57,0.00,,CLR,0.01,VWS V14.01,2013-01-09 22:52:00,
2013-01-09 16:53:00,48.1,34.0,30.39,NNW,330,0.0,4.0,58,0.00,,CLR,0.01,VWS V14.01,2013-01-09 22:53:00,
2013-01-09 16:54:00,48.1,34.0,30.39,NNW,330,0.0,4.0,58,0.00,,CLR,0.01,VWS V14.01,2013-01-09 22:54:00,
2013-01-09 16:55:00,48.1,34.0,30.39,NNW,330,0.0,4.0,58,0.00,,CLR,0.01,VWS V14.01,2013-01-09 22:55:00,
2013-01-09 16:57:00,47.9,33.8,30.39,NNW,330,0.0,4.0,58,0.00,,CLR,0.01,VWS V14.01,2013-01-09 22:57:00,
2013-01-09 16:58:00,47.9,33.8,30.39,NNW,330,0.0,4.0,58,0.00,,CLR,0.01,VWS V14.01,2013-01-09 22:58:00,
2013-01-09 16:59:00,47.8,33.8,30.39,NNW,330,0.0,4.0,58,0.00,,CLR,0.01,VWS V14.01,2013-01-09 22:59:00,
2013-01-09 17:00:00,47.8,33.8,30.39,NNW,330,0.0,0.0,58,0.00,,CLR,0.01,VWS V14.01,2013-01-09 23:00:00,
2013-01-09 17:03:00,47.6,33.6,30.39,NNW,330,0.0,0.0,58,0.00,,CLR,0.01,VWS V14.01,2013-01-09 23:03:00,
2013-01-09 17:04:00,47.6,33.6,30.39,NNW,330,0.0,0.0,58,0.00,,CLR,0.01,VWS V14.01,2013-01-09 23:04:00,
2013-01-09 17:05:00,47.6,33.6,30.39,NNW,330,0.0,0.0,58,0.00,,CLR,0.01,VWS V14.01,2013-01-09 23:05:00,
2013-01-09 17:08:00,47.5,33.5,30.39,NNW,330,0.0,0.0,58,0.00,,CLR,0.01,VWS V14.01,2013-01-09 23:08:00,
2013-01-09 17:09:00,47.3,33.7,30.39,NNW,330,0.0,0.0,59,0.00,,CLR,0.01,VWS V14.01,2013-01-09 23:09:00,
2013-01-09 17:10:00,47.3,33.7,30.39,NNW,330,0.0,0.0,59,0.00,,CLR,0.01,VWS V14.01,2013-01-09 23:10:00,
2013-01-09 17:13:00,47.0,33.4,30.39,NNW,330,0.0,0.0,59,0.00,,CLR,0.01,VWS V14.01,2013-01-09 23:13:00,
2013-01-09 17:14:00,47.0,33.4,30.39,NNW,330,0.0,0.0,59,0.00,,CLR,0.01,VWS V14.01,2013-01-09 23:14:00,
2013-01-09 17:15:00,46.9,33.3,30.40,NNW,330,0.0,0.0,59,0.00,,CLR,0.01,VWS V14.01,2013-01-09 23:15:00,
2013-01-09 17:18:00,46.7,33.6,30.40,NNW,330,0.0,0.0,60,0.00,,CLR,0.01,VWS V14.01,2013-01-09 23:18:00,
2013-01-09 17:19:00,46.7,33.6,30.40,NNW,330,0.0,0.0,60,0.00,,CLR,0.01,VWS V14.01,2013-01-09 23:19:00,
2013-01-09 17:20:00,46.6,33.5,30.40,NNW,330,0.0,0.0,60,0.00,,CLR,0.01,VWS V14.01,2013-01-09 23:20:00,
2013-01-09 17:23:00,46.4,33.7,30.40,NNW,330,0.0,0.0,61,0.00,,CLR,0.01,VWS V14.01,2013-01-09 23:23:00,
2013-01-09 17:24:00,46.4,33.7,30.40,NNW,330,0.0,0.0,61,0.00,,CLR,0.01,VWS V14.01,2013-01-09 23:24:00,
2013-01-09 17:26:00,46.3,33.6,30.40,NNW,330,0.0,0.0,61,0.00,,CLR,0.01,VWS V14.01,2013-01-09 23:26:00,
2013-01-09 17:29:00,46.0,33.7,30.40,NNW,330,0.0,0.0,62,0.00,,CLR,0.01,VWS V14.01,2013-01-09 23:29:00,
2013-01-09 17:30:00,46.0,33.7,30.40,NNW,330,0.0,0.0,62,0.00,,,0.01,VWS V14.01,2013-01-09 23:30:00,
2013-01-09 17:31:00,46.0,33.7,30.40,NNW,330,0.0,0.0,62,0.00,,CLR,0.01,VWS V14.01,2013-01-09 23:31:00,
2013-01-09 17:34:00,45.7,33.4,30.40,NNW,330,0.0,0.0,62,0.00,,CLR,0.01,VWS V14.01,2013-01-09 23:34:00,
2013-01-09 17:35:00,45.7,33.8,30.40,NNW,330,0.0,0.0,63,0.00,,CLR,0.01,VWS V14.01,2013-01-09 23:35:00,
2013-01-09 17:36:00,45.6,33.8,30.40,NNW,330,0.0,0.0,63,0.00,,CLR,0.01,VWS V14.01,2013-01-09 23:36:00,
2013-01-09 17:39:00,45.4,34.0,30.40,NNW,330,0.0,0.0,64,0.00,,CLR,0.01,VWS V14.01,2013-01-09 23:39:00,
2013-01-09 17:40:00,45.4,34.0,30.40,NNW,330,0.0,0.0,64,0.00,,CLR,0.01,VWS V14.01,2013-01-09 23:40:00,
2013-01-09 17:41:00,45.4,34.0,30.40,NNW,330,0.0,0.0,64,0.00,,CLR,0.01,VWS V14.01,2013-01-09 23:41:00,
2013-01-09 17:44:00,45.3,33.9,30.41,NNW,330,0.0,0.0,64,0.00,,CLR,0.01,VWS V14.01,2013-01-09 23:44:00,
2013-01-09 17:45:00,45.3,33.9,30.41,NNW,330,0.0,0.0,64,0.00,,CLR,0.01,VWS V14.01,2013-01-09 23:45:00,
2013-01-09 17:46:00,45.3,33.9,30.41,NNW,330,0.0,0.0,64,0.00,,CLR,0.01,VWS V14.01,2013-01-09 23:46:00,
2013-01-09 17:49:00,45.1,33.7,30.41,NNW,330,0.0,0.0,64,0.00,,CLR,0.01,VWS V14.01,2013-01-09 23:49:00,
2013-01-09 17:50:00,45.1,33.7,30.41,NNW,330,0.0,0.0,64,0.00,,CLR,0.01,VWS V14.01,2013-01-09 23:50:00,
2013-01-09 17:51:00,45.1,33.7,30.41,NNW,330,0.0,0.0,64,0.00,,CLR,0.01,VWS V14.01,2013-01-09 23:51:00,
2013-01-09 17:54:00,45.1,33.3,30.41,NNW,330,0.0,0.0,63,0.00,,CLR,0.01,VWS V14.01,2013-01-09 23:54:00,
2013-01-09 17:55:00,45.1,33.3,30.41,NNW,330,0.0,0.0,63,0.00,,CLR,0.01,VWS V14.01,2013-01-09 23:55:00,
2013-01-09 17:56:00,45.1,33.3,30.41,NNW,330,0.0,0.0,63,0.00,,CLR,0.01,VWS V14.01,2013-01-09 23:56:00,
2013-01-09 18:00:00,45.0,33.2,30.41,NNW,330,0.0,0.0,63,0.00,,CLR,0.01,VWS V14.01,2013-01-10 00:00:00,
2013-01-09 18:01:00,45.0,33.2,30.41,NNW,330,0.0,0.0,63,0.00,,CLR,0.01,VWS V14.01,2013-01-10 00:01:00,
2013-01-09 18:05:00,44.8,33.0,30.41,NNW,330,0.0,0.0,63,0.00,,CLR,0.01,VWS V14.01,2013-01-10 00:05:00,
2013-01-09 18:06:00,44.8,33.4,30.41,NNW,330,0.0,0.0,64,0.00,,CLR,0.01,VWS V14.01,2013-01-10 00:06:00,
2013-01-09 18:07:00,44.7,33.3,30.41,NNW,330,0.0,0.0,64,0.00,,CLR,0.01,VWS V14.01,2013-01-10 00:07:00,
2013-01-09 18:10:00,44.4,33.0,30.41,NNW,330,0.0,0.0,64,0.00,,CLR,0.01,VWS V14.01,2013-01-10 00:10:00,
2013-01-09 18:11:00,44.4,33.0,30.41,NNW,330,0.0,0.0,64,0.00,,CLR,0.01,VWS V14.01,2013-01-10 00:11:00,
2013-01-09 18:12:00,44.2,32.8,30.41,NNW,330,0.0,0.0,64,0.00,,CLR,0.01,VWS V14.01,2013-01-10 00:12:00,
2013-01-09 18:15:00,44.1,33.1,30.42,NNW,330,0.0,0.0,65,0.00,,CLR,0.01,VWS V14.01,2013-01-10 00:15:00,
2013-01-09 18:16:00,44.0,33.0,30.42,NNW,330,0.0,0.0,65,0.00,,CLR,0.01,VWS V14.01,2013-01-10 00:16:00,
2013-01-09 18:17:00,44.0,33.0,30.42,NNW,330,0.0,0.0,65,0.00,,CLR,0.01,VWS V14.01,2013-01-10 00:17:00,
2013-01-09 18:20:00,43.8,32.8,30.42,NNW,330,0.0,0.0,65,0.00,,CLR,0.01,VWS V14.01,2013-01-10 00:20:00,
2013-01-09 18:21:00,43.7,32.7,30.42,NNW,330,0.0,0.0,65,0.00,,CLR,0.01,VWS V14.01,2013-01-10 00:21:00,
2013-01-09 18:22:00,43.7,32.7,30.42,NNW,330,0.0,0.0,65,0.00,,CLR,0.01,VWS V14.01,2013-01-10 00:22:00,
2013-01-09 18:25:00,43.2,32.6,30.42,NNW,330,0.0,0.0,66,0.00,,CLR,0.01,VWS V14.01,2013-01-10 00:25:00,
2013-01-09 18:26:00,43.2,32.6,30.42,NNW,330,0.0,0.0,66,0.00,,CLR,0.01,VWS V14.01,2013-01-10 00:26:00,
2013-01-09 18:27:00,43.1,32.5,30.42,NNW,330,0.0,0.0,66,0.00,,CLR,0.01,VWS V14.01,2013-01-10 00:27:00,
2013-01-09 18:30:00,42.8,32.6,30.43,NNW,330,0.0,0.0,67,0.00,,CLR,0.01,VWS V14.01,2013-01-10 00:30:00,
2013-01-09 18:31:00,42.7,32.5,30.43,NNW,330,0.0,0.0,67,0.00,,CLR,0.01,VWS V14.01,2013-01-10 00:31:00,
2013-01-09 18:32:00,42.5,32.3,30.43,NNW,330,0.0,0.0,67,0.00,,CLR,0.01,VWS V14.01,2013-01-10 00:32:00,
2013-01-09 18:35:00,42.4,32.2,30.43,NNW,330,0.0,0.0,67,0.00,,CLR,0.01,VWS V14.01,2013-01-10 00:35:00,
2013-01-09 18:36:00,42.4,32.2,30.43,NNW,330,0.0,0.0,67,0.00,,CLR,0.01,VWS V14.01,2013-01-10 00:36:00,
2013-01-09 18:37:00,42.2,32.4,30.43,NNW,330,0.0,0.0,68,0.00,,CLR,0.01,VWS V14.01,2013-01-10 00:37:00,
2013-01-09 18:40:00,42.1,32.3,30.43,NNW,330,0.0,0.0,68,0.00,,CLR,0.01,VWS V14.01,2013-01-10 00:40:00,
2013-01-09 18:41:00,42.0,32.6,30.43,NNW,330,0.0,0.0,69,0.00,,CLR,0.01,VWS V14.01,2013-01-10 00:41:00,
2013-01-09 18:43:00,42.0,32.6,30.43,NNW,330,0.0,0.0,69,0.00,,CLR,0.01,VWS V14.01,2013-01-10 00:43:00,
2013-01-09 18:45:00,41.8,32.4,30.44,NNW,330,0.0,0.0,69,0.00,,CLR,0.01,VWS V14.01,2013-01-10 00:45:00,
2013-01-09 18:46:00,41.8,32.4,30.44,NNW,330,0.0,0.0,69,0.00,,CLR,0.01,VWS V14.01,2013-01-10 00:46:00,
2013-01-09 18:48:00,41.8,32.4,30.44,NNW,330,0.0,0.0,69,0.00,,CLR,0.01,VWS V14.01,2013-01-10 00:48:00,
2013-01-09 18:50:00,41.7,32.3,30.44,NNW,330,0.0,0.0,69,0.00,,CLR,0.01,VWS V14.01,2013-01-10 00:50:00,
2013-01-09 18:51:00,41.7,32.7,30.44,NNW,330,0.0,0.0,70,0.00,,CLR,0.01,VWS V14.01,2013-01-10 00:51:00,
2013-01-09 18:53:00,41.5,32.5,30.44,NNW,330,0.0,0.0,70,0.00,,CLR,0.01,VWS V14.01,2013-01-10 00:53:00,
2013-01-09 18:55:00,41.4,32.4,30.44,NNW,330,0.0,0.0,70,0.00,,CLR,0.01,VWS V14.01,2013-01-10 00:55:00,
2013-01-09 18:56:00,41.2,32.2,30.44,NNW,330,0.0,0.0,70,0.00,,CLR,0.01,VWS V14.01,2013-01-10 00:56:00,
2013-01-09 18:58:00,41.2,32.5,30.44,NNW,330,0.0,1.0,71,0.00,,CLR,0.01,VWS V14.01,2013-01-10 00:58:00,
2013-01-09 19:00:00,41.0,32.3,30.44,NNW,330,0.0,1.0,71,0.00,,,0.01,VWS V14.01,2013-01-10 01:00:00,
2013-01-09 19:01:00,40.7,32.0,30.44,NNW,330,0.0,0.0,71,0.00,,CLR,0.01,VWS V14.01,2013-01-10 01:01:00,
2013-01-09 19:02:00,40.5,31.9,30.44,NNW,330,0.0,0.0,71,0.00,,CLR,0.01,VWS V14.01,2013-01-10 01:02:00,
2013-01-09 19:03:00,40.4,32.1,30.44,NNW,330,0.0,0.0,72,0.00,,CLR,0.01,VWS V14.01,2013-01-10 01:03:00,
2013-01-09 19:06:00,40.4,32.4,30.44,NNW,330,0.0,0.0,73,0.00,,CLR,0.01,VWS V14.01,2013-01-10 01:06:00,
2013-01-09 19:07:00,40.4,32.4,30.44,NNW,330,0.0,0.0,73,0.00,,CLR,0.01,VWS V14.01,2013-01-10 01:07:00,
2013-01-09 19:08:00,40.4,32.4,30.44,NNW,330,0.0,0.0,73,0.00,,CLR,0.01,VWS V14.01,2013-01-10 01:08:00,
2013-01-09 19:11:00,40.4,32.4,30.44,NNW,330,0.0,0.0,73,0.00,,CLR,0.01,VWS V14.01,2013-01-10 01:11:00,
2013-01-09 19:12:00,40.4,32.4,30.44,NNW,330,0.0,0.0,73,0.00,,CLR,0.01,VWS V14.01,2013-01-10 01:12:00,
2013-01-09 19:14:00,40.4,32.4,30.45,NNW,330,0.0,0.0,73,0.00,,CLR,0.01,VWS V14.01,2013-01-10 01:14:00,
2013-01-09 19:16:00,40.4,32.4,30.45,NNW,330,0.0,0.0,73,0.00,,CLR,0.01,VWS V14.01,2013-01-10 01:16:00,
2013-01-09 19:17:00,40.2,32.2,30.45,NNW,330,0.0,0.0,73,0.00,,CLR,0.01,VWS V14.01,2013-01-10 01:17:00,
2013-01-09 19:19:00,40.2,32.2,30.45,NNW,330,0.0,0.0,73,0.00,,CLR,0.01,VWS V14.01,2013-01-10 01:19:00,
2013-01-09 19:21:00,40.2,32.2,30.45,NNW,330,0.0,0.0,73,0.00,,CLR,0.01,VWS V14.01,2013-01-10 01:21:00,
2013-01-09 19:22:00,40.2,32.6,30.45,NNW,330,0.0,0.0,74,0.00,,CLR,0.01,VWS V14.01,2013-01-10 01:22:00,
2013-01-09 19:24:00,40.1,32.5,30.45,NNW,330,0.0,0.0,74,0.00,,CLR,0.01,VWS V14.01,2013-01-10 01:24:00,
2013-01-09 19:26:00,40.0,32.4,30.45,NNW,330,0.0,0.0,74,0.00,,CLR,0.01,VWS V14.01,2013-01-10 01:26:00,
2013-01-09 19:27:00,39.8,32.2,30.45,NNW,330,0.0,0.0,74,0.00,,CLR,0.01,VWS V14.01,2013-01-10 01:27:00,
2013-01-09 19:28:00,39.8,32.2,30.45,NNW,330,0.0,0.0,74,0.00,,CLR,0.01,VWS V14.01,2013-01-10 01:28:00,
2013-01-09 19:29:00,39.7,32.1,30.45,NNW,330,0.0,0.0,74,0.00,,CLR,0.01,VWS V14.01,2013-01-10 01:29:00,
2013-01-09 19:30:00,39.7,32.1,30.45,NNW,330,0.0,0.0,74,0.00,,,0.01,VWS V14.01,2013-01-10 01:30:00,
2013-01-09 19:31:00,39.5,32.2,30.45,NNW,330,0.0,0.0,75,0.00,,CLR,0.01,VWS V14.01,2013-01-10 01:31:00,
2013-01-09 19:32:00,39.5,32.2,30.45,NNW,330,0.0,0.0,75,0.00,,CLR,0.01,VWS V14.01,2013-01-10 01:32:00,
2013-01-09 19:33:00,39.5,32.2,30.45,NNW,330,0.0,0.0,75,0.00,,CLR,0.01,VWS V14.01,2013-01-10 01:33:00,
2013-01-09 19:34:00,39.4,32.2,30.45,NNW,330,0.0,0.0,75,0.00,,CLR,0.01,VWS V14.01,2013-01-10 01:34:00,
2013-01-09 19:36:00,39.4,32.2,30.45,NNW,330,0.0,0.0,75,0.00,,CLR,0.01,VWS V14.01,2013-01-10 01:36:00,
2013-01-09 19:37:00,39.4,32.5,30.45,NNW,330,0.0,0.0,76,0.00,,CLR,0.01,VWS V14.01,2013-01-10 01:37:00,
2013-01-09 19:38:00,39.4,32.5,30.45,NNW,330,0.0,0.0,76,0.00,,CLR,0.01,VWS V14.01,2013-01-10 01:38:00,
2013-01-09 19:39:00,39.4,32.5,30.45,NNW,330,0.0,0.0,76,0.00,,CLR,0.01,VWS V14.01,2013-01-10 01:39:00,
2013-01-09 19:41:00,39.4,32.5,30.45,NNW,330,0.0,0.0,76,0.00,,CLR,0.01,VWS V14.01,2013-01-10 01:41:00,
2013-01-09 19:43:00,39.2,32.3,30.45,NNW,330,0.0,0.0,76,0.00,,CLR,0.01,VWS V14.01,2013-01-10 01:43:00,
2013-01-09 19:44:00,39.2,32.3,30.46,NNW,330,0.0,0.0,76,0.00,,CLR,0.01,VWS V14.01,2013-01-10 01:44:00,
2013-01-09 19:46:00,39.2,32.3,30.46,NNW,330,0.0,0.0,76,0.00,,CLR,0.01,VWS V14.01,2013-01-10 01:46:00,
2013-01-09 19:48:00,39.2,32.6,30.46,NNW,330,0.0,0.0,77,0.00,,CLR,0.01,VWS V14.01,2013-01-10 01:48:00,
2013-01-09 19:49:00,39.2,32.6,30.46,NNW,330,0.0,0.0,77,0.00,,CLR,0.01,VWS V14.01,2013-01-10 01:49:00,
2013-01-09 19:51:00,39.4,32.8,30.46,NNW,330,0.0,0.0,77,0.00,,CLR,0.01,VWS V14.01,2013-01-10 01:51:00,
2013-01-09 19:53:00,39.4,32.8,30.46,NNW,330,0.0,0.0,77,0.00,,CLR,0.01,VWS V14.01,2013-01-10 01:53:00,
2013-01-09 19:54:00,39.4,32.8,30.46,NNW,330,0.0,0.0,77,0.00,,CLR,0.01,VWS V14.01,2013-01-10 01:54:00,
2013-01-09 19:56:00,39.5,32.9,30.46,NNW,330,0.0,0.0,77,0.00,,CLR,0.01,VWS V14.01,2013-01-10 01:56:00,
2013-01-09 19:58:00,39.5,32.9,30.46,NNW,330,0.0,0.0,77,0.00,,CLR,0.01,VWS V14.01,2013-01-10 01:58:00,
2013-01-09 19:59:00,39.5,32.9,30.46,NNW,330,0.0,0.0,77,0.00,,CLR,0.01,VWS V14.01,2013-01-10 01:59:00,
2013-01-09 20:00:00,39.5,32.9,30.46,NNW,330,0.0,0.0,77,0.00,,,0.01,VWS V14.01,2013-01-10 02:00:00,
2013-01-09 20:02:00,39.5,32.9,30.46,NNW,330,0.0,0.0,77,0.00,,CLR,0.01,VWS V14.01,2013-01-10 02:02:00,
2013-01-09 20:03:00,39.5,32.9,30.46,NNW,330,0.0,0.0,77,0.00,,CLR,0.01,VWS V14.01,2013-01-10 02:03:00,
2013-01-09 20:04:00,39.5,32.9,30.46,NNW,330,0.0,0.0,77,0.00,,CLR,0.01,VWS V14.01,2013-01-10 02:04:00,
2013-01-09 20:05:00,39.5,32.9,30.46,NNW,330,0.0,0.0,77,0.00,,CLR,0.01,VWS V14.01,2013-01-10 02:05:00,
2013-01-09 20:07:00,39.4,32.8,30.46,NNW,330,0.0,0.0,77,0.00,,CLR,0.01,VWS V14.01,2013-01-10 02:07:00,
2013-01-09 20:08:00,39.4,32.8,30.46,NNW,330,0.0,0.0,77,0.00,,CLR,0.01,VWS V14.01,2013-01-10 02:08:00,
2013-01-09 20:09:00,39.4,32.8,30.46,NNW,330,0.0,0.0,77,0.00,,CLR,0.01,VWS V14.01,2013-01-10 02:09:00,
2013-01-09 20:10:00,39.2,32.6,30.46,NNW,330,0.0,0.0,77,0.00,,CLR,0.01,VWS V14.01,2013-01-10 02:10:00,
2013-01-09 20:12:00,39.2,32.6,30.46,NNW,330,0.0,0.0,77,0.00,,CLR,0.01,VWS V14.01,2013-01-10 02:12:00,
2013-01-09 20:13:00,39.2,32.6,30.46,NNW,330,0.0,0.0,77,0.00,,CLR,0.01,VWS V14.01,2013-01-10 02:13:00,
2013-01-09 20:14:00,39.2,32.6,30.45,NNW,330,0.0,0.0,77,0.00,,CLR,0.01,VWS V14.01,2013-01-10 02:14:00,
2013-01-09 20:15:00,39.2,32.6,30.45,NNW,330,0.0,0.0,77,0.00,,CLR,0.01,VWS V14.01,2013-01-10 02:15:00,
2013-01-09 20:17:00,39.2,32.9,30.45,NNW,330,0.0,0.0,78,0.00,,CLR,0.01,VWS V14.01,2013-01-10 02:17:00,
2013-01-09 20:18:00,39.2,32.9,30.45,NNW,330,0.0,0.0,78,0.00,,CLR,0.01,VWS V14.01,2013-01-10 02:18:00,
2013-01-09 20:20:00,39.2,32.9,30.45,NNW,330,0.0,0.0,78,0.00,,CLR,0.01,VWS V14.01,2013-01-10 02:20:00,
2013-01-09 20:22:00,39.2,32.9,30.45,NNW,330,0.0,0.0,78,0.00,,CLR,0.01,VWS V14.01,2013-01-10 02:22:00,
2013-01-09 20:23:00,39.1,32.8,30.45,NNW,330,0.0,0.0,78,0.00,,CLR,0.01,VWS V14.01,2013-01-10 02:23:00,
2013-01-09 20:25:00,39.1,32.8,30.45,NNW,330,0.0,0.0,78,0.00,,CLR,0.01,VWS V14.01,2013-01-10 02:25:00,
2013-01-09 20:27:00,39.1,32.8,30.45,NNW,330,0.0,0.0,78,0.00,,CLR,0.01,VWS V14.01,2013-01-10 02:27:00,
2013-01-09 20:29:00,39.0,32.7,30.45,NNW,330,0.0,0.0,78,0.00,,CLR,0.01,VWS V14.01,2013-01-10 02:29:00,
2013-01-09 20:30:00,39.0,32.7,30.45,NNW,330,0.0,0.0,78,0.00,,CLR,0.01,VWS V14.01,2013-01-10 02:30:00,
2013-01-09 20:32:00,38.8,32.5,30.45,NNW,330,0.0,0.0,78,0.00,,CLR,0.01,VWS V14.01,2013-01-10 02:32:00,
2013-01-09 20:35:00,38.7,32.4,30.45,NNW,330,0.0,0.0,78,0.00,,CLR,0.01,VWS V14.01,2013-01-10 02:35:00,
2013-01-09 20:37:00,38.5,32.2,30.45,NNW,330,0.0,0.0,78,0.00,,CLR,0.01,VWS V14.01,2013-01-10 02:37:00,
2013-01-09 20:40:00,38.5,32.2,30.45,NNW,330,0.0,0.0,78,0.00,,CLR,0.01,VWS V14.01,2013-01-10 02:40:00,
2013-01-09 20:42:00,38.5,32.6,30.45,NNW,330,0.0,0.0,79,0.00,,CLR,0.01,VWS V14.01,2013-01-10 02:42:00,
2013-01-09 20:45:00,38.5,32.6,30.44,NNW,330,0.0,0.0,79,0.00,,CLR,0.01,VWS V14.01,2013-01-10 02:45:00,
2013-01-09 20:47:00,38.5,32.6,30.44,NNW,330,0.0,0.0,79,0.00,,CLR,0.01,VWS V14.01,2013-01-10 02:47:00,
2013-01-09 20:50:00,38.2,32.0,30.44,NNW,330,0.0,0.0,78,0.00,,CLR,0.01,VWS V14.01,2013-01-10 02:50:00,
2013-01-09 20:51:00,38.2,32.0,30.44,NNW,330,0.0,0.0,78,0.00,,CLR,0.01,VWS V14.01,2013-01-10 02:51:00,
2013-01-09 20:52:00,38.1,31.9,30.44,NNW,330,0.0,0.0,78,0.00,,CLR,0.01,VWS V14.01,2013-01-10 02:52:00,
2013-01-09 20:55:00,37.8,31.9,30.44,NNW,330,0.0,0.0,79,0.00,,CLR,0.01,VWS V14.01,2013-01-10 02:55:00,
2013-01-09 20:56:00,37.7,31.8,30.44,NNW,330,0.0,0.0,79,0.00,,CLR,0.01,VWS V14.01,2013-01-10 02:56:00,
2013-01-09 20:58:00,37.7,31.8,30.44,NNW,330,0.0,0.0,79,0.00,,CLR,0.01,VWS V14.01,2013-01-10 02:58:00,
2013-01-09 21:00:00,37.4,31.8,30.44,NNW,330,0.0,0.0,80,0.00,,CLR,0.01,VWS V14.01,2013-01-10 03:00:00,
2013-01-09 21:01:00,37.4,31.8,30.44,NNW,330,0.0,0.0,80,0.00,,CLR,0.01,VWS V14.01,2013-01-10 03:01:00,
2013-01-09 21:03:00,37.4,31.8,30.44,NNW,330,0.0,0.0,80,0.00,,CLR,0.01,VWS V14.01,2013-01-10 03:03:00,
2013-01-09 21:06:00,37.1,31.2,30.44,NNW,330,0.0,0.0,79,0.00,,CLR,0.01,VWS V14.01,2013-01-10 03:06:00,
2013-01-09 21:08:00,36.7,30.8,30.44,NNW,330,0.0,0.0,79,0.00,,CLR,0.01,VWS V14.01,2013-01-10 03:08:00,
2013-01-09 21:11:00,36.4,30.8,30.44,NNW,330,0.0,0.0,80,0.00,,CLR,0.01,VWS V14.01,2013-01-10 03:11:00,
2013-01-09 21:13:00,36.2,30.6,30.44,NNW,330,0.0,0.0,80,0.00,,CLR,0.01,VWS V14.01,2013-01-10 03:13:00,
2013-01-09 21:16:00,36.2,30.9,30.44,NNW,330,0.0,0.0,81,0.00,,CLR,0.01,VWS V14.01,2013-01-10 03:16:00,
2013-01-09 21:18:00,36.4,31.1,30.44,NNW,330,0.0,0.0,81,0.00,,CLR,0.01,VWS V14.01,2013-01-10 03:18:00,
2013-01-09 21:21:00,36.7,31.4,30.44,NNW,330,1.0,2.0,81,0.00,,CLR,0.01,VWS V14.01,2013-01-10 03:21:00,
2013-01-09 21:23:00,36.9,31.3,30.44,NNW,330,0.0,2.0,80,0.00,,CLR,0.01,VWS V14.01,2013-01-10 03:23:00,
2013-01-09 21:26:00,37.2,31.6,30.44,NNW,330,0.0,2.0,80,0.00,,CLR,0.01,VWS V14.01,2013-01-10 03:26:00,
2013-01-09 21:28:00,37.1,31.2,30.44,NNW,330,0.0,2.0,79,0.00,,CLR,0.01,VWS V14.01,2013-01-10 03:28:00,
2013-01-09 21:30:00,37.1,31.2,30.44,NNW,330,0.0,2.0,79,0.00,,,0.01,VWS V14.01,2013-01-10 03:30:00,
2013-01-09 21:31:00,37.1,31.2,30.44,NNW,330,0.0,0.0,79,0.00,,CLR,0.01,VWS V14.01,2013-01-10 03:31:00,
2013-01-09 21:33:00,37.1,31.2,30.44,North,9,0.0,2.0,79,0.00,,CLR,0.01,VWS V14.01,2013-01-10 03:33:00,
2013-01-09 21:36:00,37.4,31.8,30.44,North,9,0.0,2.0,80,0.00,,CLR,0.01,VWS V14.01,2013-01-10 03:36:00,
2013-01-09 21:37:00,37.4,31.5,30.44,North,9,0.0,2.0,79,0.00,,CLR,0.01,VWS V14.01,2013-01-10 03:37:00,
2013-01-09 21:38:00,37.5,31.6,30.44,North,9,0.0,2.0,79,0.00,,CLR,0.01,VWS V14.01,2013-01-10 03:38:00,
2013-01-09 21:41:00,37.4,31.2,30.44,North,9,0.0,2.0,78,0.00,,CLR,0.01,VWS V14.01,2013-01-10 03:41:00,
2013-01-09 21:42:00,37.4,31.2,30.44,North,9,0.0,2.0,78,0.00,,CLR,0.01,VWS V14.01,2013-01-10 03:42:00,
2013-01-09 21:44:00,37.2,30.7,30.43,North,9,0.0,2.0,77,0.00,,CLR,0.01,VWS V14.01,2013-01-10 03:44:00,
2013-01-09 21:47:00,36.9,30.7,30.43,North,9,0.0,2.0,78,0.00,,CLR,0.01,VWS V14.01,2013-01-10 03:47:00,
2013-01-09 21:49:00,36.8,30.6,30.43,North,9,0.0,2.0,78,0.00,,CLR,0.01,VWS V14.01,2013-01-10 03:49:00,
2013-01-09 21:52:00,36.8,30.9,30.43,North,9,0.0,2.0,79,0.00,,CLR,0.01,VWS V14.01,2013-01-10 03:52:00,
2013-01-09 21:54:00,36.8,30.9,30.43,North,9,0.0,2.0,79,0.00,,CLR,0.01,VWS V14.01,2013-01-10 03:54:00,
2013-01-09 21:57:00,36.8,30.9,30.43,North,9,0.0,2.0,79,0.00,,CLR,0.01,VWS V14.01,2013-01-10 03:57:00,
2013-01-09 21:59:00,36.8,30.9,30.44,North,9,0.0,2.0,79,0.00,,CLR,0.01,VWS V14.01,2013-01-10 03:59:00,
2013-01-09 22:00:00,36.8,30.9,30.44,North,9,0.0,2.0,79,0.00,,,0.01,VWS V14.01,2013-01-10 04:00:00,
2013-01-09 22:02:00,36.8,30.9,30.44,North,9,0.0,0.0,79,0.00,,CLR,0.01,VWS V14.01,2013-01-10 04:02:00,
2013-01-09 22:04:00,36.8,30.9,30.44,North,9,0.0,0.0,79,0.00,,CLR,0.01,VWS V14.01,2013-01-10 04:04:00,
2013-01-09 22:07:00,36.9,31.0,30.44,North,9,0.0,0.0,79,0.00,,CLR,0.01,VWS V14.01,2013-01-10 04:07:00,
2013-01-09 22:09:00,36.9,31.0,30.44,North,9,0.0,0.0,79,0.00,,CLR,0.01,VWS V14.01,2013-01-10 04:09:00,
2013-01-09 22:12:00,36.9,31.0,30.44,North,9,0.0,0.0,79,0.00,,CLR,0.01,VWS V14.01,2013-01-10 04:12:00,
2013-01-09 22:14:00,37.1,31.2,30.44,North,9,0.0,0.0,79,0.00,,CLR,0.01,VWS V14.01,2013-01-10 04:14:00,
2013-01-09 22:17:00,37.2,31.0,30.44,North,9,0.0,0.0,78,0.00,,CLR,0.01,VWS V14.01,2013-01-10 04:17:00,
2013-01-09 22:18:00,37.2,31.0,30.44,North,9,0.0,0.0,78,0.00,,CLR,0.01,VWS V14.01,2013-01-10 04:18:00,
2013-01-09 22:19:00,37.2,31.0,30.44,North,9,0.0,0.0,78,0.00,,CLR,0.01,VWS V14.01,2013-01-10 04:19:00,
2013-01-09 22:22:00,37.2,31.0,30.44,North,9,0.0,0.0,78,0.00,,CLR,0.01,VWS V14.01,2013-01-10 04:22:00,
2013-01-09 22:23:00,37.2,31.0,30.44,North,9,0.0,0.0,78,0.00,,CLR,0.01,VWS V14.01,2013-01-10 04:23:00,
2013-01-09 22:24:00,37.4,31.2,30.44,North,9,0.0,0.0,78,0.00,,CLR,0.01,VWS V14.01,2013-01-10 04:24:00,
2013-01-09 22:27:00,37.5,31.3,30.44,North,9,0.0,0.0,78,0.00,,CLR,0.01,VWS V14.01,2013-01-10 04:27:00,
2013-01-09 22:28:00,37.5,31.3,30.44,North,9,0.0,0.0,78,0.00,,CLR,0.01,VWS V14.01,2013-01-10 04:28:00,
2013-01-09 22:29:00,37.5,31.0,30.44,North,9,0.0,0.0,77,0.00,,CLR,0.01,VWS V14.01,2013-01-10 04:29:00,
2013-01-09 22:30:00,37.5,31.0,30.44,North,9,0.0,0.0,77,0.00,,,0.01,VWS V14.01,2013-01-10 04:30:00,
2013-01-09 22:33:00,37.5,31.0,30.44,North,9,0.0,0.0,77,0.00,,CLR,0.01,VWS V14.01,2013-01-10 04:33:00,
2013-01-09 22:35:00,37.7,31.1,30.44,North,9,0.0,0.0,77,0.00,,CLR,0.01,VWS V14.01,2013-01-10 04:35:00,
2013-01-09 22:38:00,37.8,31.2,30.44,North,9,0.0,0.0,77,0.00,,CLR,0.01,VWS V14.01,2013-01-10 04:38:00,
2013-01-09 22:40:00,37.8,30.9,30.44,North,9,0.0,0.0,76,0.00,,CLR,0.01,VWS V14.01,2013-01-10 04:40:00,
2013-01-09 22:43:00,37.9,31.0,30.44,North,9,0.0,0.0,76,0.00,,CLR,0.01,VWS V14.01,2013-01-10 04:43:00,
2013-01-09 22:45:00,37.9,30.7,30.44,North,9,0.0,0.0,75,0.00,,CLR,0.01,VWS V14.01,2013-01-10 04:45:00,
2013-01-09 22:48:00,37.9,30.7,30.44,North,9,0.0,0.0,75,0.00,,CLR,0.01,VWS V14.01,2013-01-10 04:48:00,
2013-01-09 22:50:00,37.9,30.7,30.44,North,9,0.0,0.0,75,0.00,,CLR,0.01,VWS V14.01,2013-01-10 04:50:00,
2013-01-09 22:53:00,37.9,30.7,30.44,North,9,0.0,0.0,75,0.00,,CLR,0.01,VWS V14.01,2013-01-10 04:53:00,
2013-01-09 22:55:00,37.9,30.7,30.44,North,9,0.0,0.0,75,0.00,,CLR,0.01,VWS V14.01,2013-01-10 04:55:00,
2013-01-09 22:58:00,37.9,30.7,30.44,North,9,0.0,0.0,75,0.00,,CLR,0.01,VWS V14.01,2013-01-10 04:58:00,
2013-01-09 23:00:00,37.9,30.7,30.45,North,9,0.0,0.0,75,0.00,,CLR,0.01,VWS V14.01,2013-01-10 05:00:00,
2013-01-09 23:02:00,37.9,30.4,30.45,North,9,0.0,0.0,74,0.00,,CLR,0.01,VWS V14.01,2013-01-10 05:02:00,
2013-01-09 23:05:00,37.9,30.4,30.45,North,9,0.0,0.0,74,0.00,,CLR,0.01,VWS V14.01,2013-01-10 05:05:00,
2013-01-09 23:06:00,37.9,30.4,30.45,North,9,0.0,0.0,74,0.00,,CLR,0.01,VWS V14.01,2013-01-10 05:06:00,
2013-01-09 23:08:00,37.9,30.4,30.45,North,9,0.0,0.0,74,0.00,,CLR,0.01,VWS V14.01,2013-01-10 05:08:00,
2013-01-09 23:10:00,37.9,30.4,30.45,North,9,0.0,0.0,74,0.00,,CLR,0.01,VWS V14.01,2013-01-10 05:10:00,
2013-01-09 23:11:00,37.9,30.4,30.45,North,9,0.0,0.0,74,0.00,,CLR,0.01,VWS V14.01,2013-01-10 05:11:00,
2013-01-09 23:13:00,37.9,30.4,30.45,North,9,0.0,0.0,74,0.00,,CLR,0.01,VWS V14.01,2013-01-10 05:13:00,
2013-01-09 23:15:00,37.8,30.3,30.44,North,9,0.0,0.0,74,0.00,,CLR,0.01,VWS V14.01,2013-01-10 05:15:00,
2013-01-09 23:16:00,37.8,30.3,30.44,North,9,0.0,0.0,74,0.00,,CLR,0.01,VWS V14.01,2013-01-10 05:16:00,
2013-01-09 23:18:00,37.8,30.3,30.44,North,9,0.0,0.0,74,0.00,,CLR,0.01,VWS V14.01,2013-01-10 05:18:00,
2013-01-09 23:20:00,37.7,30.2,30.44,North,9,0.0,0.0,74,0.00,,CLR,0.01,VWS V14.01,2013-01-10 05:20:00,
2013-01-09 23:21:00,37.7,30.2,30.44,North,9,0.0,0.0,74,0.00,,CLR,0.01,VWS V14.01,2013-01-10 05:21:00,
2013-01-09 23:23:00,37.7,30.2,30.44,North,9,0.0,0.0,74,0.00,,CLR,0.01,VWS V14.01,2013-01-10 05:23:00,
2013-01-09 23:26:00,37.5,30.0,30.44,North,9,0.0,0.0,74,0.00,,CLR,0.01,VWS V14.01,2013-01-10 05:26:00,
2013-01-09 23:27:00,37.5,30.0,30.44,North,9,0.0,0.0,74,0.00,,CLR,0.01,VWS V14.01,2013-01-10 05:27:00,
2013-01-09 23:28:00,37.5,30.0,30.44,North,9,0.0,0.0,74,0.00,,CLR,0.01,VWS V14.01,2013-01-10 05:28:00,
2013-01-09 23:30:00,37.4,29.9,30.43,North,9,0.0,0.0,74,0.00,,,0.01,VWS V14.01,2013-01-10 05:30:00,
2013-01-09 23:31:00,37.4,29.9,30.43,North,9,0.0,0.0,74,0.00,,CLR,0.01,VWS V14.01,2013-01-10 05:31:00,
2013-01-09 23:32:00,37.4,29.9,30.43,North,9,0.0,0.0,74,0.00,,CLR,0.01,VWS V14.01,2013-01-10 05:32:00,
2013-01-09 23:33:00,37.2,30.0,30.43,North,9,0.0,0.0,75,0.00,,CLR,0.01,VWS V14.01,2013-01-10 05:33:00,
2013-01-09 23:36:00,37.2,30.0,30.43,North,9,0.0,0.0,75,0.00,,CLR,0.01,VWS V14.01,2013-01-10 05:36:00,
2013-01-09 23:37:00,37.2,30.0,30.43,North,9,0.0,0.0,75,0.00,,CLR,0.01,VWS V14.01,2013-01-10 05:37:00,
2013-01-09 23:39:00,37.1,29.9,30.43,North,9,0.0,0.0,75,0.00,,CLR,0.01,VWS V14.01,2013-01-10 05:39:00,
2013-01-09 23:41:00,36.9,29.7,30.43,North,9,0.0,0.0,75,0.00,,CLR,0.01,VWS V14.01,2013-01-10 05:41:00,
2013-01-09 23:42:00,36.9,29.7,30.43,North,9,0.0,0.0,75,0.00,,CLR,0.01,VWS V14.01,2013-01-10 05:42:00,
2013-01-09 23:44:00,36.9,29.7,30.43,North,9,0.0,0.0,75,0.00,,CLR,0.01,VWS V14.01,2013-01-10 05:44:00,
2013-01-09 23:46:00,36.8,30.0,30.43,North,9,0.0,0.0,76,0.00,,CLR,0.01,VWS V14.01,2013-01-10 05:46:00,
2013-01-09 23:47:00,36.8,30.0,30.43,North,9,0.0,0.0,76,0.00,,CLR,0.01,VWS V14.01,2013-01-10 05:47:00,
2013-01-09 23:49:00,36.8,30.0,30.43,North,9,0.0,0.0,76,0.00,,CLR,0.01,VWS V14.01,2013-01-10 05:49:00,
2013-01-09 23:51:00,36.8,30.0,30.43,North,9,0.0,0.0,76,0.00,,CLR,0.01,VWS V14.01,2013-01-10 05:51:00,
2013-01-09 23:52:00,36.8,30.0,30.43,North,9,0.0,0.0,76,0.00,,CLR,0.01,VWS V14.01,2013-01-10 05:52:00,
2013-01-09 23:54:00,36.7,29.9,30.43,North,9,0.0,0.0,76,0.00,,CLR,0.01,VWS V14.01,2013-01-10 05:54:00,
2013-01-09 23:56:00,36.7,29.9,30.43,North,9,0.0,0.0,76,0.00,,CLR,0.01,VWS V14.01,2013-01-10 05:56:00,
2013-01-09 23:57:00,36.7,29.9,30.43,North,9,0.0,0.0,76,0.00,,CLR,0.01,VWS V14.01,2013-01-10 05:57:00,
2013-01-09 23:59:00,36.5,29.7,30.43,North,9,0.0,0.0,76,0.00,,CLR,0.01,VWS V14.01,2013-01-10 05:59:00,